UAL842 YSSY-KLAX

Flight info

Callsign UAL842
Flight time N/A
Altitude 33000
Route RIC6/34L OLSEM B580 IFFEY 2940S15727E 2657S16142E 2617S16300E 2359S16710E 2200S17010E 1925S17344E/K900F350 1533S17814E 1159S17824W 0915S17603W 0521S17246W 0500S17226W 0325S17058W 0023N16659W 0417N16253W/K900F370 0715N15931W 0857N15726W 1202N15316W 1507N14921W 1705N14651W 2018N14212W 2256N13748W/K900F390 2510N13346W 2814N12824W 3046N12406W FOOTS FICKY ROSIN SXC
Aircraft B78X/H-SDE1E2E3FGHIJ2J3J4J5M1RWXYZ/LB1D1

Departure

Time 2026-04-26 07:13
Airport Sydney Kingsford Smith International Airport (YSSY)

Arrival

Time N/A
Airport Los Angeles International Airport (KLAX)
Time Latitude Longitude Altitude Speed Heading
2026-04-26 06:30 -33.93887 151.16655 27 ft 0 kts 257°
2026-04-26 06:59 -33.93886 151.16661 27 ft 2 kts 255°
2026-04-26 06:59 -33.93883 151.16674 25 ft 2 kts 256°
2026-04-26 06:59 -33.93878 151.16693 27 ft 2 kts 254°
2026-04-26 07:00 -33.93874 151.16712 25 ft 2 kts 251°
2026-04-26 07:00 -33.93868 151.16730 24 ft 2 kts 240°
2026-04-26 07:00 -33.93857 151.16745 25 ft 2 kts 179°
2026-04-26 07:00 -33.93840 151.16742 26 ft 2 kts 165°
2026-04-26 07:01 -33.93825 151.16737 27 ft 1 kts 163°
2026-04-26 07:01 -33.93822 151.16736 26 ft 0 kts 163°
2026-04-26 07:03 -33.93839 151.16741 24 ft 6 kts 165°
2026-04-26 07:03 -33.93885 151.16755 24 ft 11 kts 166°
2026-04-26 07:03 -33.93979 151.16788 27 ft 15 kts 163°
2026-04-26 07:04 -33.94054 151.16847 27 ft 10 kts 102°
2026-04-26 07:04 -33.94042 151.16926 26 ft 10 kts 73°
2026-04-26 07:04 -33.94020 151.17012 27 ft 11 kts 73°
2026-04-26 07:04 -33.93996 151.17115 28 ft 15 kts 74°
2026-04-26 07:05 -33.94000 151.17218 31 ft 10 kts 130°
2026-04-26 07:05 -33.94061 151.17247 27 ft 13 kts 168°
2026-04-26 07:05 -33.94197 151.17282 27 ft 27 kts 167°
2026-04-26 07:05 -33.94378 151.17330 31 ft 25 kts 168°
2026-04-26 07:06 -33.94542 151.17374 32 ft 24 kts 167°
2026-04-26 07:06 -33.94698 151.17415 31 ft 23 kts 168°
2026-04-26 07:06 -33.94857 151.17455 30 ft 24 kts 169°
2026-04-26 07:06 -33.95017 151.17495 31 ft 23 kts 167°
2026-04-26 07:07 -33.95169 151.17537 27 ft 22 kts 168°
2026-04-26 07:07 -33.95319 151.17573 26 ft 21 kts 169°
2026-04-26 07:07 -33.95456 151.17608 29 ft 19 kts 168°
2026-04-26 07:07 -33.95585 151.17643 27 ft 19 kts 166°
2026-04-26 07:08 -33.95715 151.17677 30 ft 20 kts 168°
2026-04-26 07:08 -33.95871 151.17714 27 ft 26 kts 168°
2026-04-26 07:08 -33.96044 151.17761 29 ft 24 kts 167°
2026-04-26 07:08 -33.96205 151.17803 28 ft 24 kts 167°
2026-04-26 07:09 -33.96355 151.17842 28 ft 16 kts 168°
2026-04-26 07:09 -33.96425 151.17871 29 ft 7 kts 143°
2026-04-26 07:09 -33.96441 151.17911 29 ft 4 kts 95°
2026-04-26 07:09 -33.96440 151.17913 29 ft 0 kts 93°
2026-04-26 07:11 -33.96441 151.17916 29 ft 2 kts 93°
2026-04-26 07:12 -33.96434 151.17984 29 ft 17 kts 77°
2026-04-26 07:12 -33.96303 151.18032 29 ft 33 kts 348°
2026-04-26 07:12 -33.95859 151.17918 28 ft 97 kts 348°
2026-04-26 07:12 -33.95009 151.17696 26 ft 152 kts 347°
2026-04-26 07:13 -33.93868 151.17378 255 ft 176 kts 351°
2026-04-26 07:13 -33.92608 151.17070 578 ft 194 kts 350°
2026-04-26 07:13 -33.91240 151.16726 1296 ft 202 kts 350°
2026-04-26 07:13 -33.89882 151.16349 2220 ft 195 kts 348°
2026-04-26 07:14 -33.88590 151.15943 2831 ft 197 kts 345°
2026-04-26 07:14 -33.87199 151.15444 3140 ft 220 kts 343°
2026-04-26 07:14 -33.85726 151.14834 3542 ft 238 kts 341°
2026-04-26 07:14 -33.84109 151.14237 3338 ft 249 kts 346°
2026-04-26 07:15 -33.82400 151.13716 3125 ft 253 kts 346°
2026-04-26 07:15 -33.80694 151.13206 3022 ft 252 kts 347°
2026-04-26 07:15 -33.78979 151.12693 3024 ft 254 kts 347°
2026-04-26 07:15 -33.77281 151.12175 3024 ft 254 kts 347°
2026-04-26 07:16 -33.75577 151.11652 3027 ft 251 kts 346°
2026-04-26 07:16 -33.73872 151.11131 3023 ft 255 kts 346°
2026-04-26 07:16 -33.72160 151.10617 3027 ft 253 kts 347°
2026-04-26 07:16 -33.70472 151.10110 3020 ft 254 kts 346°
2026-04-26 07:17 -33.68777 151.09600 3570 ft 252 kts 346°
2026-04-26 07:17 -33.67044 151.09091 4202 ft 258 kts 346°
2026-04-26 07:17 -33.65286 151.08588 4847 ft 264 kts 346°
2026-04-26 07:17 -33.63488 151.08080 5475 ft 268 kts 346°
2026-04-26 07:18 -33.61650 151.07563 6105 ft 273 kts 347°
2026-04-26 07:18 -33.59775 151.07100 6797 ft 278 kts 357°
2026-04-26 07:18 -33.57939 151.07674 7661 ft 278 kts 36°
2026-04-26 07:18 -33.56660 151.09385 8478 ft 279 kts 63°
2026-04-26 07:19 -33.56127 151.11607 9349 ft 281 kts 89°
2026-04-26 07:19 -33.56404 151.13935 10175 ft 285 kts 104°
2026-04-26 07:19 -33.56926 151.16296 10669 ft 301 kts 104°
2026-04-26 07:19 -33.57419 151.18778 11076 ft 320 kts 101°
2026-04-26 07:20 -33.57874 151.21472 11496 ft 337 kts 101°
2026-04-26 07:20 -33.58349 151.24251 12228 ft 343 kts 102°
2026-04-26 07:20 -33.58859 151.27071 13013 ft 348 kts 102°
2026-04-26 07:20 -33.59379 151.29931 13834 ft 353 kts 102°
2026-04-26 07:21 -33.59893 151.32828 14579 ft 357 kts 102°
2026-04-26 07:21 -33.60408 151.35751 15300 ft 361 kts 102°
2026-04-26 07:21 -33.60933 151.38714 16044 ft 364 kts 102°
2026-04-26 07:21 -33.61464 151.41695 16803 ft 367 kts 102°
2026-04-26 07:22 -33.61997 151.44707 17539 ft 370 kts 101°
2026-04-26 07:22 -33.62532 151.47746 18262 ft 374 kts 101°
2026-04-26 07:22 -33.63072 151.50809 18899 ft 377 kts 102°
2026-04-26 07:22 -33.63618 151.53903 19505 ft 381 kts 102°
2026-04-26 07:23 -33.64115 151.57039 20088 ft 384 kts 94°
2026-04-26 07:23 -33.63956 151.60233 20700 ft 386 kts 77°
2026-04-26 07:23 -33.63048 151.63272 21281 ft 390 kts 61°
2026-04-26 07:23 -33.61555 151.66011 21821 ft 394 kts 56°
2026-04-26 07:24 -33.59957 151.68701 22351 ft 399 kts 54°
2026-04-26 07:24 -33.58321 151.71409 22906 ft 402 kts 55°
2026-04-26 07:24 -33.56692 151.74155 23450 ft 406 kts 56°
2026-04-26 07:24 -33.55069 151.76915 23953 ft 409 kts 55°
2026-04-26 07:25 -33.53414 151.79708 24393 ft 413 kts 55°
2026-04-26 07:25 -33.51739 151.82517 24819 ft 416 kts 55°
2026-04-26 07:25 -33.50053 151.85349 25245 ft 419 kts 55°
2026-04-26 07:25 -33.48356 151.88205 25676 ft 422 kts 56°
2026-04-26 07:26 -33.46644 151.91083 26075 ft 425 kts 56°
2026-04-26 07:26 -33.44917 151.93980 26481 ft 428 kts 55°
2026-04-26 07:26 -33.43178 151.96894 26889 ft 432 kts 56°
2026-04-26 07:26 -33.41427 151.99829 27282 ft 435 kts 56°
2026-04-26 07:27 -33.39662 152.02783 27681 ft 438 kts 56°
2026-04-26 07:27 -33.37884 152.05758 28071 ft 441 kts 56°
2026-04-26 07:27 -33.36093 152.08750 28458 ft 444 kts 56°
2026-04-26 07:27 -33.34290 152.11761 28836 ft 447 kts 56°
2026-04-26 07:28 -33.32475 152.14791 29215 ft 449 kts 56°
2026-04-26 07:28 -33.30668 152.17802 29574 ft 452 kts 55°
2026-04-26 07:28 -33.28827 152.20869 29940 ft 455 kts 55°
2026-04-26 07:28 -33.26971 152.23959 30298 ft 458 kts 55°
2026-04-26 07:29 -33.25105 152.27062 30608 ft 461 kts 55°
2026-04-26 07:29 -33.23232 152.30174 30905 ft 463 kts 55°
2026-04-26 07:29 -33.21343 152.33311 31210 ft 466 kts 55°
2026-04-26 07:29 -33.19444 152.36461 31506 ft 468 kts 55°
2026-04-26 07:30 -33.17538 152.39620 31799 ft 470 kts 55°
2026-04-26 07:30 -33.15622 152.42794 32090 ft 473 kts 55°
2026-04-26 07:30 -33.13694 152.45983 32371 ft 475 kts 55°
2026-04-26 07:30 -33.11757 152.49185 32654 ft 477 kts 55°
2026-04-26 07:31 -33.09806 152.52408 32936 ft 479 kts 55°
2026-04-26 07:31 -33.07851 152.55635 33215 ft 481 kts 55°
2026-04-26 07:31 -33.05905 152.58844 33257 ft 485 kts 55°
2026-04-26 07:32 -33.01896 152.65446 33276 ft 499 kts 55°
2026-04-26 07:32 -32.97765 152.72237 33274 ft 513 kts 55°
2026-04-26 07:33 -32.93554 152.79144 33274 ft 514 kts 55°
2026-04-26 07:33 -32.89347 152.86035 33274 ft 515 kts 55°
2026-04-26 07:34 -32.85147 152.92900 33272 ft 515 kts 55°
2026-04-26 07:34 -32.80921 152.99796 33278 ft 515 kts 55°
2026-04-26 07:35 -32.76693 153.06681 33275 ft 515 kts 55°
2026-04-26 07:35 -32.72491 153.13513 33266 ft 515 kts 55°
2026-04-26 07:36 -32.68267 153.20367 33279 ft 514 kts 55°
2026-04-26 07:36 -32.64032 153.27226 33273 ft 514 kts 55°
2026-04-26 07:37 -32.59789 153.34086 33261 ft 515 kts 55°
2026-04-26 07:37 -32.55542 153.40941 33281 ft 515 kts 55°
2026-04-26 07:38 -32.51319 153.47743 33273 ft 515 kts 55°
2026-04-26 07:38 -32.47062 153.54589 33273 ft 515 kts 55°
2026-04-26 07:39 -32.42821 153.61396 33272 ft 515 kts 55°
2026-04-26 07:39 -32.38558 153.68227 33283 ft 515 kts 55°
2026-04-26 07:40 -32.34291 153.75051 33264 ft 515 kts 55°
2026-04-26 07:40 -32.30016 153.81875 33268 ft 515 kts 55°
2026-04-26 07:41 -32.25769 153.88642 33271 ft 515 kts 55°
2026-04-26 07:41 -32.21487 153.95453 33275 ft 515 kts 55°
2026-04-26 07:42 -32.17232 154.02210 33276 ft 515 kts 55°
2026-04-26 07:42 -32.12949 154.08999 33273 ft 515 kts 55°
2026-04-26 07:43 -32.08659 154.15786 33275 ft 515 kts 55°
2026-04-26 07:43 -32.04375 154.22552 33276 ft 515 kts 55°
2026-04-26 07:44 -32.00098 154.29295 33270 ft 515 kts 56°
2026-04-26 07:44 -31.95789 154.36051 33270 ft 516 kts 52°
2026-04-26 07:45 -31.91163 154.42531 33269 ft 517 kts 52°
2026-04-26 07:45 -31.87335 154.47920 33271 ft 517 kts 52°
2026-04-26 07:46 -31.81924 154.55464 33274 ft 518 kts 52°
2026-04-26 07:46 -31.78065 154.60864 33272 ft 518 kts 52°
2026-04-26 07:47 -31.73412 154.67340 33272 ft 518 kts 52°
2026-04-26 07:47 -31.68759 154.73819 33266 ft 518 kts 52°
2026-04-26 07:48 -31.64119 154.80262 33268 ft 518 kts 52°
2026-04-26 07:48 -31.59469 154.86710 33265 ft 517 kts 52°
2026-04-26 07:49 -31.54832 154.93128 33263 ft 517 kts 52°
2026-04-26 07:49 -31.50164 154.99580 33260 ft 517 kts 52°
2026-04-26 07:50 -31.43197 155.09188 33258 ft 517 kts 52°
2026-04-26 07:50 -31.38535 155.15603 33264 ft 517 kts 52°
2026-04-26 07:51 -31.33864 155.22021 33260 ft 517 kts 52°
2026-04-26 07:51 -31.29183 155.28442 33261 ft 518 kts 51°
2026-04-26 07:52 -31.24523 155.34821 33258 ft 518 kts 51°
2026-04-26 07:52 -31.19838 155.41226 33257 ft 518 kts 51°
2026-04-26 07:53 -31.15145 155.47630 33256 ft 518 kts 51°
2026-04-26 07:53 -31.10451 155.54025 33258 ft 518 kts 51°
2026-04-26 07:54 -31.05749 155.60421 33255 ft 519 kts 51°
2026-04-26 07:54 -31.01059 155.66791 33249 ft 519 kts 51°
2026-04-26 07:55 -30.96348 155.73177 33248 ft 519 kts 51°
2026-04-26 07:55 -30.91664 155.79516 33249 ft 519 kts 50°
2026-04-26 07:56 -30.86953 155.85884 33246 ft 518 kts 50°
2026-04-26 07:56 -30.82233 155.92251 33245 ft 518 kts 50°
2026-04-26 07:57 -30.77516 155.98603 33246 ft 518 kts 50°
2026-04-26 07:57 -30.72830 156.04903 33247 ft 517 kts 50°
2026-04-26 07:58 -30.68103 156.11249 33240 ft 517 kts 49°
2026-04-26 07:58 -30.63414 156.17534 33243 ft 517 kts 49°
2026-04-26 07:59 -30.58699 156.23842 33239 ft 516 kts 49°
2026-04-26 07:59 -30.53985 156.30140 33237 ft 516 kts 49°
2026-04-26 08:00 -30.49295 156.36395 33235 ft 516 kts 49°
2026-04-26 08:00 -30.44564 156.42694 33230 ft 516 kts 49°
2026-04-26 08:01 -30.39867 156.48939 33231 ft 515 kts 48°
2026-04-26 08:01 -30.35143 156.55210 33231 ft 515 kts 48°
2026-04-26 08:02 -30.30416 156.61473 33229 ft 515 kts 48°
2026-04-26 08:02 -30.25719 156.67690 33228 ft 515 kts 48°
2026-04-26 08:03 -30.21003 156.73917 33223 ft 515 kts 48°
2026-04-26 08:03 -30.16275 156.80155 33215 ft 515 kts 47°
2026-04-26 08:04 -30.11570 156.86351 33213 ft 515 kts 47°
2026-04-26 08:04 -30.06843 156.92566 33218 ft 515 kts 47°
2026-04-26 08:05 -30.02102 156.98789 33214 ft 515 kts 47°
2026-04-26 08:05 -29.97390 157.04964 33217 ft 515 kts 47°
2026-04-26 08:06 -29.92639 157.11182 33213 ft 514 kts 47°
2026-04-26 08:06 -29.87927 157.17339 33209 ft 514 kts 47°
2026-04-26 08:07 -29.83175 157.23538 33206 ft 514 kts 47°
2026-04-26 08:07 -29.78473 157.29661 33206 ft 513 kts 47°
2026-04-26 08:08 -29.73736 157.35823 33202 ft 512 kts 46°
2026-04-26 08:08 -29.69006 157.41966 33200 ft 512 kts 46°
2026-04-26 08:09 -29.64619 157.48377 33196 ft 514 kts 53°
2026-04-26 08:09 -29.60512 157.55112 33201 ft 514 kts 53°
2026-04-26 08:10 -29.56434 157.61813 33204 ft 514 kts 53°
2026-04-26 08:10 -29.52321 157.68544 33199 ft 514 kts 53°
2026-04-26 08:11 -29.48210 157.75270 33194 ft 513 kts 53°
2026-04-26 08:11 -29.44119 157.81948 33194 ft 513 kts 53°
2026-04-26 08:12 -29.40016 157.88637 33192 ft 514 kts 52°
2026-04-26 08:12 -29.35898 157.95340 33190 ft 513 kts 52°
2026-04-26 08:13 -29.31763 158.02056 33185 ft 514 kts 52°
2026-04-26 08:13 -29.27655 158.08723 33181 ft 514 kts 52°
2026-04-26 08:14 -29.23520 158.15417 33180 ft 514 kts 52°
2026-04-26 08:14 -29.19404 158.22076 33174 ft 514 kts 52°
2026-04-26 08:15 -29.15264 158.28757 33171 ft 514 kts 52°
2026-04-26 08:15 -29.11146 158.35396 33166 ft 514 kts 52°
2026-04-26 08:16 -29.06993 158.42078 33164 ft 515 kts 52°
2026-04-26 08:16 -29.02831 158.48767 33158 ft 517 kts 52°
2026-04-26 08:17 -28.98659 158.55454 33167 ft 517 kts 52°
2026-04-26 08:17 -28.94474 158.62160 33168 ft 518 kts 52°
2026-04-26 08:18 -28.90313 158.68813 33166 ft 518 kts 52°
2026-04-26 08:18 -28.86117 158.75509 33163 ft 518 kts 52°
2026-04-26 08:19 -28.81919 158.82205 33161 ft 518 kts 52°
2026-04-26 08:19 -28.77742 158.88849 33158 ft 518 kts 52°
2026-04-26 08:20 -28.73535 158.95531 33158 ft 518 kts 52°
2026-04-26 08:20 -28.69346 159.02178 33158 ft 519 kts 52°
2026-04-26 08:21 -28.65129 159.08858 33156 ft 519 kts 51°
2026-04-26 08:21 -28.60906 159.15536 33156 ft 519 kts 51°
2026-04-26 08:22 -28.56687 159.22195 33156 ft 518 kts 51°
2026-04-26 08:22 -28.52486 159.28818 33156 ft 518 kts 51°
2026-04-26 08:23 -28.48252 159.35481 33152 ft 518 kts 51°
2026-04-26 08:23 -28.44041 159.42099 33157 ft 519 kts 51°
2026-04-26 08:24 -28.39803 159.48747 33144 ft 519 kts 51°
2026-04-26 08:24 -28.35565 159.55387 33148 ft 518 kts 51°
2026-04-26 08:25 -28.31348 159.61982 33144 ft 518 kts 51°
2026-04-26 08:25 -28.27105 159.68608 33143 ft 518 kts 51°
2026-04-26 08:26 -28.22858 159.75230 33137 ft 519 kts 51°
2026-04-26 08:26 -28.18608 159.81848 33140 ft 518 kts 51°
2026-04-26 08:27 -28.14382 159.88417 33137 ft 518 kts 51°
2026-04-26 08:27 -28.10126 159.95022 33138 ft 518 kts 51°
2026-04-26 08:28 -28.05863 160.01626 33143 ft 518 kts 51°
2026-04-26 08:28 -28.01600 160.08225 33143 ft 518 kts 51°
2026-04-26 08:29 -27.97361 160.14771 33143 ft 518 kts 51°
2026-04-26 08:29 -27.93094 160.21355 33139 ft 518 kts 51°
2026-04-26 08:30 -27.88826 160.27928 33129 ft 518 kts 51°
2026-04-26 08:30 -27.84569 160.34475 33122 ft 519 kts 51°
2026-04-26 08:31 -27.80292 160.41043 33128 ft 518 kts 51°
2026-04-26 08:31 -27.76028 160.47581 33124 ft 518 kts 51°
2026-04-26 08:32 -27.71755 160.54122 33130 ft 518 kts 51°
2026-04-26 08:32 -27.68188 160.59575 33113 ft 519 kts 51°
2026-04-26 08:33 -27.63889 160.66141 33123 ft 519 kts 51°
2026-04-26 08:33 -27.59610 160.72661 33117 ft 520 kts 51°
2026-04-26 08:34 -27.55292 160.79237 33117 ft 520 kts 51°
2026-04-26 08:34 -27.50978 160.85791 33114 ft 520 kts 51°
2026-04-26 08:35 -27.46686 160.92306 33114 ft 521 kts 51°
2026-04-26 08:35 -27.42365 160.98853 33111 ft 521 kts 51°
2026-04-26 08:36 -27.38032 161.05410 33106 ft 521 kts 50°
2026-04-26 08:36 -27.33696 161.11962 33107 ft 521 kts 50°
2026-04-26 08:37 -27.29373 161.18483 33113 ft 522 kts 50°
2026-04-26 08:37 -27.25046 161.25001 33104 ft 522 kts 50°
2026-04-26 08:38 -27.20689 161.31553 33099 ft 523 kts 50°
2026-04-26 08:38 -27.16325 161.38108 33096 ft 523 kts 50°
2026-04-26 08:39 -27.11976 161.44632 33094 ft 524 kts 50°
2026-04-26 08:39 -27.07596 161.51190 33092 ft 524 kts 50°
2026-04-26 08:40 -27.03213 161.57745 33093 ft 524 kts 50°
2026-04-26 08:40 -26.98854 161.64252 33091 ft 524 kts 50°
2026-04-26 08:41 -26.94557 161.70878 33101 ft 526 kts 58°
2026-04-26 08:41 -26.90949 161.78008 33104 ft 527 kts 58°
2026-04-26 08:42 -26.87320 161.85171 33106 ft 527 kts 58°
2026-04-26 08:42 -26.83693 161.92319 33108 ft 527 kts 58°
2026-04-26 08:43 -26.80086 161.99415 33104 ft 526 kts 58°
2026-04-26 08:43 -26.76455 162.06548 33104 ft 526 kts 57°
2026-04-26 08:44 -26.72843 162.13630 33100 ft 526 kts 57°
2026-04-26 08:44 -26.69209 162.20747 33093 ft 525 kts 57°
2026-04-26 08:45 -26.65596 162.27807 33095 ft 525 kts 57°
2026-04-26 08:45 -26.61964 162.34898 33092 ft 525 kts 57°
2026-04-26 08:46 -26.58319 162.42000 33085 ft 525 kts 57°
2026-04-26 08:46 -26.54675 162.49088 33082 ft 525 kts 56°
2026-04-26 08:47 -26.51056 162.56116 33078 ft 524 kts 56°
2026-04-26 08:47 -26.47411 162.63186 33076 ft 524 kts 56°
2026-04-26 08:48 -26.43787 162.70202 33085 ft 524 kts 56°
2026-04-26 08:48 -26.40134 162.77264 33080 ft 524 kts 56°
2026-04-26 08:49 -26.36478 162.84319 33074 ft 524 kts 56°
2026-04-26 08:49 -26.32839 162.91332 33069 ft 525 kts 56°
2026-04-26 08:50 -26.29172 162.98387 33065 ft 525 kts 56°
2026-04-26 08:50 -26.25481 163.05421 33066 ft 525 kts 55°
2026-04-26 08:51 -26.19918 163.15924 33064 ft 527 kts 55°
2026-04-26 08:52 -26.16209 163.22920 33059 ft 527 kts 55°
2026-04-26 08:52 -26.12468 163.29969 33058 ft 528 kts 55°
2026-04-26 08:53 -26.08718 163.37026 33058 ft 529 kts 55°
2026-04-26 08:53 -26.04985 163.44037 33057 ft 530 kts 55°
2026-04-26 08:54 -26.01223 163.51095 33056 ft 530 kts 54°
2026-04-26 08:54 -25.97448 163.58162 33052 ft 531 kts 54°
2026-04-26 08:55 -25.93676 163.65215 33051 ft 531 kts 54°
2026-04-26 08:55 -25.89889 163.72286 33050 ft 532 kts 54°
2026-04-26 08:56 -25.86090 163.79367 33050 ft 533 kts 54°
2026-04-26 08:56 -25.82311 163.86401 33047 ft 533 kts 54°
2026-04-26 08:57 -25.78497 163.93487 33048 ft 534 kts 54°
2026-04-26 08:57 -25.74707 164.00519 33048 ft 534 kts 54°
2026-04-26 08:58 -25.70881 164.07608 33041 ft 535 kts 54°
2026-04-26 08:58 -25.67041 164.14711 33044 ft 536 kts 54°
2026-04-26 08:59 -25.63220 164.21767 33040 ft 536 kts 54°
2026-04-26 08:59 -25.59368 164.28871 33039 ft 537 kts 53°
2026-04-26 09:00 -25.55526 164.35944 33040 ft 537 kts 53°
2026-04-26 09:00 -25.51662 164.43048 33033 ft 538 kts 53°
2026-04-26 09:01 -25.47818 164.50104 33038 ft 538 kts 53°
2026-04-26 09:01 -25.43941 164.57211 33033 ft 539 kts 53°
2026-04-26 09:02 -25.40059 164.64313 33032 ft 539 kts 53°
2026-04-26 09:02 -25.36174 164.71413 33030 ft 539 kts 53°
2026-04-26 09:03 -25.32294 164.78492 33031 ft 540 kts 53°
2026-04-26 09:03 -25.28408 164.85571 33029 ft 541 kts 53°
2026-04-26 09:04 -25.24496 164.92687 33023 ft 541 kts 52°
2026-04-26 09:04 -25.20574 164.99810 33025 ft 542 kts 52°
2026-04-26 09:05 -25.16674 165.06882 33026 ft 542 kts 52°
2026-04-26 09:05 -25.12747 165.13994 33024 ft 543 kts 52°
2026-04-26 09:06 -25.08803 165.21123 33015 ft 543 kts 52°
2026-04-26 09:06 -25.04862 165.28240 33011 ft 544 kts 52°
2026-04-26 09:07 -25.00936 165.35316 33025 ft 544 kts 52°
2026-04-26 09:07 -24.96972 165.42451 33021 ft 544 kts 52°
2026-04-26 09:08 -24.93023 165.49548 33012 ft 545 kts 52°
2026-04-26 09:08 -24.89042 165.56691 33014 ft 545 kts 52°
2026-04-26 09:09 -24.85087 165.63777 33012 ft 545 kts 52°
2026-04-26 09:09 -24.81100 165.70912 33011 ft 546 kts 52°
2026-04-26 09:10 -24.77131 165.78001 33013 ft 547 kts 52°
2026-04-26 09:10 -24.73133 165.85134 33009 ft 547 kts 51°
2026-04-26 09:11 -24.69125 165.92273 33011 ft 547 kts 51°
2026-04-26 09:11 -24.65142 165.99357 33010 ft 547 kts 51°
2026-04-26 09:12 -24.61129 166.06483 33006 ft 547 kts 51°
2026-04-26 09:12 -24.57119 166.13595 33008 ft 546 kts 51°
2026-04-26 09:13 -24.53131 166.20656 33005 ft 546 kts 51°
2026-04-26 09:13 -24.49115 166.27758 33008 ft 546 kts 50°
2026-04-26 09:14 -24.45121 166.34808 33010 ft 547 kts 50°
2026-04-26 09:14 -24.41094 166.41909 33021 ft 547 kts 50°
2026-04-26 09:15 -24.37060 166.49009 33002 ft 547 kts 50°
2026-04-26 09:15 -24.33052 166.56055 33004 ft 547 kts 49°
2026-04-26 09:16 -24.29011 166.63147 33000 ft 548 kts 49°
2026-04-26 09:16 -24.24962 166.70246 32996 ft 548 kts 49°
2026-04-26 09:17 -24.20906 166.77344 32994 ft 549 kts 49°
2026-04-26 09:17 -24.16874 166.84391 32996 ft 549 kts 49°
2026-04-26 09:18 -24.12805 166.91492 32999 ft 549 kts 49°
2026-04-26 09:18 -24.08766 166.98530 32992 ft 549 kts 49°
2026-04-26 09:19 -24.04692 167.05620 32989 ft 549 kts 49°
2026-04-26 09:19 -24.00615 167.12704 32994 ft 549 kts 49°
2026-04-26 09:20 -23.97151 167.18505 33005 ft 544 kts 45°
2026-04-26 09:20 -23.92786 167.25298 33002 ft 546 kts 45°
2026-04-26 09:21 -23.88437 167.32061 32991 ft 546 kts 45°
2026-04-26 09:21 -23.84051 167.38863 32985 ft 546 kts 45°
2026-04-26 09:22 -23.79673 167.45653 32978 ft 546 kts 45°
2026-04-26 09:22 -23.75322 167.52384 32978 ft 546 kts 45°
2026-04-26 09:23 -23.70938 167.59162 32966 ft 546 kts 45°
2026-04-26 09:23 -23.66534 167.65959 32968 ft 546 kts 45°
2026-04-26 09:24 -23.62164 167.72697 32969 ft 547 kts 45°
2026-04-26 09:24 -23.57764 167.79470 32974 ft 547 kts 45°
2026-04-26 09:25 -23.53362 167.86238 32958 ft 547 kts 45°
2026-04-26 09:25 -23.48952 167.93010 32956 ft 547 kts 45°
2026-04-26 09:26 -23.44566 167.99735 32957 ft 547 kts 45°
2026-04-26 09:26 -23.40146 168.06503 32945 ft 547 kts 45°
2026-04-26 09:27 -23.35750 168.13227 32948 ft 547 kts 45°
2026-04-26 09:27 -23.31327 168.19982 32941 ft 547 kts 45°
2026-04-26 09:28 -23.26896 168.26740 32939 ft 548 kts 45°
2026-04-26 09:28 -23.22494 168.33446 32938 ft 548 kts 45°
2026-04-26 09:29 -23.18051 168.40205 32933 ft 548 kts 45°
2026-04-26 09:29 -23.13608 168.46955 32927 ft 548 kts 45°
2026-04-26 09:30 -23.09200 168.53644 32938 ft 547 kts 45°
2026-04-26 09:30 -23.04760 168.60372 32924 ft 547 kts 45°
2026-04-26 09:31 -23.00349 168.67047 32925 ft 546 kts 45°
2026-04-26 09:31 -22.95915 168.73749 32923 ft 546 kts 45°
2026-04-26 09:32 -22.91503 168.80409 32923 ft 545 kts 45°
2026-04-26 09:32 -22.87073 168.87087 32922 ft 544 kts 45°
2026-04-26 09:33 -22.82667 168.93721 32920 ft 544 kts 45°
2026-04-26 09:33 -22.78232 169.00390 32920 ft 543 kts 45°
2026-04-26 09:34 -22.73807 169.07036 32920 ft 543 kts 45°
2026-04-26 09:34 -22.69388 169.13664 32917 ft 542 kts 45°
2026-04-26 09:35 -22.64991 169.20251 32914 ft 542 kts 44°
2026-04-26 09:35 -22.60560 169.26879 32913 ft 541 kts 44°
2026-04-26 09:36 -22.56171 169.33439 32912 ft 540 kts 44°
2026-04-26 09:36 -22.51763 169.40018 32909 ft 540 kts 44°
2026-04-26 09:37 -22.47347 169.46600 32912 ft 538 kts 44°
2026-04-26 09:37 -22.42970 169.53113 32907 ft 538 kts 44°
2026-04-26 09:38 -22.38558 169.59675 32906 ft 538 kts 44°
2026-04-26 09:38 -22.34142 169.66233 32909 ft 538 kts 44°
2026-04-26 09:39 -22.29755 169.72740 32904 ft 539 kts 44°
2026-04-26 09:39 -22.25323 169.79305 32902 ft 539 kts 44°
2026-04-26 09:40 -22.20922 169.85817 32903 ft 539 kts 44°
2026-04-26 09:40 -22.16488 169.92369 32911 ft 540 kts 44°
2026-04-26 09:41 -22.12070 169.98890 32894 ft 540 kts 44°
2026-04-26 09:41 -22.07610 170.05465 32896 ft 540 kts 44°
2026-04-26 09:42 -22.03188 170.11976 32896 ft 541 kts 44°
2026-04-26 09:42 -21.98739 170.18510 32899 ft 540 kts 44°
2026-04-26 09:43 -21.94204 170.24900 32900 ft 539 kts 43°
2026-04-26 09:43 -21.89677 170.31369 32895 ft 540 kts 44°
2026-04-26 09:44 -21.85135 170.37814 32895 ft 539 kts 43°
2026-04-26 09:44 -21.80597 170.44255 32900 ft 539 kts 44°
2026-04-26 09:45 -21.76090 170.50647 32897 ft 538 kts 44°
2026-04-26 09:45 -21.71549 170.57071 32895 ft 538 kts 44°
2026-04-26 09:46 -21.67035 170.63458 32893 ft 539 kts 44°
2026-04-26 09:46 -21.62485 170.69884 32897 ft 539 kts 44°
2026-04-26 09:47 -21.57942 170.76294 32905 ft 539 kts 44°
2026-04-26 09:47 -21.53392 170.82706 32898 ft 539 kts 44°
2026-04-26 09:48 -21.48870 170.89072 32894 ft 539 kts 44°
2026-04-26 09:48 -21.44306 170.95488 32899 ft 539 kts 44°
2026-04-26 09:49 -21.39748 171.01890 32896 ft 539 kts 44°
2026-04-26 09:49 -21.35214 171.08249 32893 ft 539 kts 44°
2026-04-26 09:50 -21.30643 171.14653 32896 ft 539 kts 44°
2026-04-26 09:50 -21.26100 171.21012 32898 ft 540 kts 44°
2026-04-26 09:51 -21.21526 171.27406 32896 ft 540 kts 44°
2026-04-26 09:51 -21.16952 171.33791 32901 ft 540 kts 44°
2026-04-26 09:52 -21.12370 171.40184 32897 ft 540 kts 45°
2026-04-26 09:52 -21.05527 171.49713 32898 ft 539 kts 45°
2026-04-26 09:53 -21.00941 171.56091 32899 ft 539 kts 45°
2026-04-26 09:53 -20.96391 171.62413 32894 ft 538 kts 45°
2026-04-26 09:54 -20.91803 171.68779 32897 ft 538 kts 45°
2026-04-26 09:54 -20.87252 171.75087 32900 ft 538 kts 45°
2026-04-26 09:55 -20.82669 171.81432 32899 ft 538 kts 46°
2026-04-26 09:55 -20.78085 171.87772 32901 ft 538 kts 46°
2026-04-26 09:56 -20.73526 171.94070 32905 ft 538 kts 46°
2026-04-26 09:56 -20.68940 172.00398 32901 ft 538 kts 46°
2026-04-26 09:57 -20.64348 172.06728 32903 ft 539 kts 46°
2026-04-26 09:57 -20.59756 172.13051 32900 ft 539 kts 46°
2026-04-26 09:58 -20.55179 172.19345 32902 ft 538 kts 46°
2026-04-26 09:58 -20.50596 172.25642 32908 ft 538 kts 45°
2026-04-26 09:59 -20.46770 172.30892 32902 ft 538 kts 45°
2026-04-26 09:59 -20.41406 172.38246 32903 ft 539 kts 45°
2026-04-26 10:00 -20.36795 172.44560 32900 ft 539 kts 45°
2026-04-26 10:00 -20.32213 172.50829 32902 ft 539 kts 45°
2026-04-26 10:01 -20.27777 172.56890 32902 ft 538 kts 45°
2026-04-26 10:01 -20.23335 172.62952 32904 ft 538 kts 45°
2026-04-26 10:02 -20.18939 172.68947 32902 ft 537 kts 45°
2026-04-26 10:02 -20.15343 172.73847 32905 ft 536 kts 45°
2026-04-26 10:03 -20.12418 172.77827 32904 ft 536 kts 45°
2026-04-26 10:03 -20.08081 172.83726 32921 ft 536 kts 45°
2026-04-26 10:04 -20.04782 172.88209 32917 ft 536 kts 45°
2026-04-26 10:04 -20.01325 172.92904 32916 ft 536 kts 45°
2026-04-26 10:05 -19.98341 172.96952 32918 ft 536 kts 45°
2026-04-26 10:05 -19.94294 173.02440 32915 ft 536 kts 45°
2026-04-26 10:06 -19.91789 173.05832 32914 ft 536 kts 45°
2026-04-26 10:06 -19.88621 173.10121 32915 ft 536 kts 46°
2026-04-26 10:07 -19.86316 173.13240 32911 ft 536 kts 46°
2026-04-26 10:07 -19.83598 173.16916 32908 ft 535 kts 46°
2026-04-26 10:08 -19.80273 173.21409 32907 ft 536 kts 46°
2026-04-26 10:08 -19.76763 173.26148 32906 ft 536 kts 46°
2026-04-26 10:09 -19.72285 173.32189 32902 ft 535 kts 46°
2026-04-26 10:09 -19.67721 173.38339 32915 ft 535 kts 46°
2026-04-26 10:10 -19.63895 173.43491 32901 ft 535 kts 46°
2026-04-26 10:10 -19.61250 173.47050 32914 ft 535 kts 46°
2026-04-26 10:11 -19.58388 173.50898 32907 ft 534 kts 46°
2026-04-26 10:11 -19.55270 173.55089 32906 ft 534 kts 46°
2026-04-26 10:12 -19.52641 173.58617 32905 ft 534 kts 46°
2026-04-26 10:12 -19.50268 173.61802 32906 ft 534 kts 46°
2026-04-26 10:13 -19.47273 173.65820 32903 ft 533 kts 46°
2026-04-26 10:13 -19.44382 173.69695 32903 ft 533 kts 46°
2026-04-26 10:14 -19.41033 173.74114 32908 ft 530 kts 42°
2026-04-26 10:14 -19.37632 173.78137 32912 ft 531 kts 44°
2026-04-26 10:15 -19.34210 173.82357 32918 ft 531 kts 44°
2026-04-26 10:15 -19.31169 173.85997 32912 ft 531 kts 43°
2026-04-26 10:16 -19.28014 173.89743 32906 ft 531 kts 44°
2026-04-26 10:16 -19.24945 173.93475 32910 ft 532 kts 44°
2026-04-26 10:17 -19.21941 173.97096 32908 ft 532 kts 44°
2026-04-26 10:17 -19.19324 174.00208 32908 ft 532 kts 44°
2026-04-26 10:18 -19.16716 174.03336 32905 ft 533 kts 44°
2026-04-26 10:18 -19.13808 174.06852 32909 ft 533 kts 44°
2026-04-26 10:19 -19.10664 174.10614 32904 ft 532 kts 44°
2026-04-26 10:19 -19.07498 174.14393 32913 ft 532 kts 44°
2026-04-26 10:20 -19.05230 174.17119 32913 ft 532 kts 44°
2026-04-26 10:20 -19.02385 174.20534 32908 ft 532 kts 44°
2026-04-26 10:21 -18.99338 174.24168 32908 ft 532 kts 44°
2026-04-26 10:21 -18.97052 174.26898 32910 ft 533 kts 44°
2026-04-26 10:22 -18.93912 174.30659 32911 ft 533 kts 44°
2026-04-26 10:22 -18.90492 174.34742 32907 ft 533 kts 44°
2026-04-26 10:23 -18.86827 174.39112 32909 ft 533 kts 44°
2026-04-26 10:23 -18.83092 174.43571 32908 ft 532 kts 44°
2026-04-26 10:24 -18.80233 174.46977 32908 ft 532 kts 44°
2026-04-26 10:24 -18.76794 174.51071 32907 ft 532 kts 44°
2026-04-26 10:25 -18.73472 174.55028 32908 ft 532 kts 44°
2026-04-26 10:25 -18.69564 174.59677 32910 ft 532 kts 44°
2026-04-26 10:26 -18.65649 174.64329 32907 ft 532 kts 44°
2026-04-26 10:26 -18.61972 174.68697 32902 ft 532 kts 44°
2026-04-26 10:27 -18.58094 174.73299 32905 ft 532 kts 44°
2026-04-26 10:27 -18.54508 174.77553 32908 ft 532 kts 44°
2026-04-26 10:28 -18.51425 174.81207 32909 ft 532 kts 44°
2026-04-26 10:28 -18.48225 174.84997 32910 ft 532 kts 44°
2026-04-26 10:29 -18.44645 174.89235 32904 ft 532 kts 44°
2026-04-26 10:29 -18.41024 174.93519 32909 ft 532 kts 44°
2026-04-26 10:30 -18.38249 174.96799 32909 ft 532 kts 44°
2026-04-26 10:30 -18.35628 174.99896 32910 ft 532 kts 44°
2026-04-26 10:31 -18.33005 175.02995 32912 ft 533 kts 44°
2026-04-26 10:31 -18.30379 175.06095 32910 ft 533 kts 44°
2026-04-26 10:32 -18.27603 175.09371 32912 ft 533 kts 44°
2026-04-26 10:32 -18.24646 175.12857 32910 ft 533 kts 44°
2026-04-26 10:33 -18.21796 175.16217 32910 ft 533 kts 44°
2026-04-26 10:33 -18.19258 175.19208 32907 ft 533 kts 44°
2026-04-26 10:34 -18.16709 175.22208 32912 ft 533 kts 44°
2026-04-26 10:34 -18.14325 175.25014 32919 ft 534 kts 45°
2026-04-26 10:35 -18.12182 175.27534 32924 ft 535 kts 45°
2026-04-26 10:35 -18.10452 175.29570 32920 ft 535 kts 45°
2026-04-26 10:36 -18.07855 175.32624 32918 ft 535 kts 45°
2026-04-26 10:36 -18.05543 175.35340 32920 ft 535 kts 45°
2026-04-26 10:37 -18.02487 175.38928 32919 ft 536 kts 45°
2026-04-26 10:37 -17.99515 175.42417 32916 ft 536 kts 45°
2026-04-26 10:38 -17.95272 175.47394 32911 ft 536 kts 45°
2026-04-26 10:38 -17.92959 175.50105 32913 ft 536 kts 45°
2026-04-26 10:39 -17.90889 175.52530 32911 ft 536 kts 45°
2026-04-26 10:39 -17.87516 175.56482 32912 ft 536 kts 45°
2026-04-26 10:40 -17.83491 175.61193 32910 ft 536 kts 45°
2026-04-26 10:40 -17.79601 175.65743 32903 ft 537 kts 45°
2026-04-26 10:41 -17.75585 175.70437 32904 ft 537 kts 45°
2026-04-26 10:41 -17.71395 175.75330 32902 ft 537 kts 45°
2026-04-26 10:42 -17.67186 175.80243 32906 ft 536 kts 45°
2026-04-26 10:42 -17.63061 175.85053 32905 ft 537 kts 45°
2026-04-26 10:43 -17.59627 175.89055 32905 ft 537 kts 45°
2026-04-26 10:43 -17.56402 175.92810 32909 ft 537 kts 45°
2026-04-26 10:44 -17.53511 175.96176 32905 ft 537 kts 45°
2026-04-26 10:44 -17.50283 175.99931 32907 ft 536 kts 45°
2026-04-26 10:45 -17.47305 176.03394 32908 ft 536 kts 45°
2026-04-26 10:45 -17.44102 176.07117 32904 ft 535 kts 45°
2026-04-26 10:46 -17.41282 176.10392 32906 ft 535 kts 45°
2026-04-26 10:46 -17.38073 176.14117 32909 ft 535 kts 45°
2026-04-26 10:47 -17.34526 176.18232 32910 ft 535 kts 45°
2026-04-26 10:47 -17.30143 176.23314 32908 ft 535 kts 45°
2026-04-26 10:48 -17.26020 176.28091 32909 ft 535 kts 45°
2026-04-26 10:48 -17.22303 176.32394 32904 ft 535 kts 45°
2026-04-26 10:49 -17.18133 176.37218 32903 ft 535 kts 45°
2026-04-26 10:49 -17.14150 176.41823 32911 ft 535 kts 45°
2026-04-26 10:50 -17.10410 176.46143 32908 ft 535 kts 45°
2026-04-26 10:50 -17.07020 176.50057 32906 ft 535 kts 45°
2026-04-26 10:51 -17.01988 176.55863 32907 ft 535 kts 45°
2026-04-26 10:52 -16.99254 176.59015 32906 ft 536 kts 45°
2026-04-26 10:52 -16.96264 176.62462 32904 ft 535 kts 45°
2026-04-26 10:53 -16.93684 176.65434 32909 ft 536 kts 45°
2026-04-26 10:53 -16.91020 176.68501 32907 ft 536 kts 45°
2026-04-26 10:54 -16.87938 176.72048 32914 ft 536 kts 45°
2026-04-26 10:54 -16.85648 176.74682 32918 ft 536 kts 45°
2026-04-26 10:55 -16.83646 176.76984 32918 ft 537 kts 45°
2026-04-26 10:55 -16.81559 176.79384 32918 ft 537 kts 45°
2026-04-26 10:56 -16.78399 176.83014 32919 ft 537 kts 45°
2026-04-26 10:56 -16.75976 176.85795 32915 ft 537 kts 45°
2026-04-26 10:57 -16.72903 176.89324 32914 ft 538 kts 45°
2026-04-26 10:57 -16.68188 176.94733 32915 ft 539 kts 45°
2026-04-26 10:58 -16.63111 177.00551 32912 ft 539 kts 45°
2026-04-26 10:58 -16.58063 177.06332 32916 ft 539 kts 45°
2026-04-26 10:59 -16.55540 177.09219 33091 ft 542 kts 45°
2026-04-26 10:59 -16.53028 177.12093 33328 ft 544 kts 45°
2026-04-26 10:59 -16.50475 177.15014 33575 ft 545 kts 45°
2026-04-26 10:59 -16.47916 177.17938 33809 ft 548 kts 45°
2026-04-26 11:00 -16.45345 177.20876 34011 ft 549 kts 45°
2026-04-26 11:00 -16.42788 177.23796 34200 ft 551 kts 45°
2026-04-26 11:00 -16.40169 177.26786 34345 ft 552 kts 45°
2026-04-26 11:00 -16.37579 177.29742 34460 ft 551 kts 45°
2026-04-26 11:01 -16.32410 177.35636 34506 ft 551 kts 45°
2026-04-26 11:01 -16.27353 177.41402 34501 ft 535 kts 45°
2026-04-26 11:02 -16.22334 177.47110 34503 ft 535 kts 45°
2026-04-26 11:02 -16.17341 177.52794 34501 ft 534 kts 45°
2026-04-26 11:03 -16.12319 177.58500 34503 ft 533 kts 45°
2026-04-26 11:03 -16.07353 177.64142 34503 ft 532 kts 45°
2026-04-26 11:04 -16.02441 177.69715 34501 ft 532 kts 45°
2026-04-26 11:04 -15.97552 177.75260 34504 ft 532 kts 45°
2026-04-26 11:05 -15.92643 177.80823 34505 ft 532 kts 45°
2026-04-26 11:05 -15.87587 177.86547 34505 ft 531 kts 45°
2026-04-26 11:06 -15.82681 177.92096 34502 ft 531 kts 45°
2026-04-26 11:06 -15.77674 177.97757 34504 ft 531 kts 45°
2026-04-26 11:07 -15.73020 178.03014 34503 ft 530 kts 45°
2026-04-26 11:07 -15.68236 178.08413 34500 ft 530 kts 45°
2026-04-26 11:08 -15.63674 178.13559 34496 ft 530 kts 45°
2026-04-26 11:08 -15.59217 178.18582 34500 ft 529 kts 45°
2026-04-26 11:09 -15.54459 178.23884 34494 ft 527 kts 40°
2026-04-26 11:09 -15.49511 178.28608 34520 ft 526 kts 41°
2026-04-26 11:10 -15.44438 178.33536 34487 ft 526 kts 41°
2026-04-26 11:10 -15.39611 178.38170 34491 ft 526 kts 41°
2026-04-26 11:11 -15.34269 178.43322 34493 ft 526 kts 41°
2026-04-26 11:11 -15.31606 178.45888 34645 ft 527 kts 41°
2026-04-26 11:11 -15.28903 178.48483 34881 ft 529 kts 41°
2026-04-26 11:12 -15.23555 178.53629 34890 ft 523 kts 41°
2026-04-26 11:12 -15.18206 178.58767 34884 ft 525 kts 41°
2026-04-26 11:13 -15.12831 178.63930 34883 ft 525 kts 41°
2026-04-26 11:13 -15.07518 178.69028 34883 ft 524 kts 41°
2026-04-26 11:14 -15.02194 178.74134 34886 ft 524 kts 41°
2026-04-26 11:14 -14.96972 178.79137 34884 ft 523 kts 41°
2026-04-26 11:15 -14.91586 178.84296 34891 ft 523 kts 40°
2026-04-26 11:15 -14.86617 178.89049 34891 ft 521 kts 40°
2026-04-26 11:16 -14.81702 178.93750 34891 ft 521 kts 41°
2026-04-26 11:16 -14.76976 178.98267 34887 ft 521 kts 41°
2026-04-26 11:17 -14.71908 179.03107 34888 ft 520 kts 41°
2026-04-26 11:17 -14.67065 179.07729 34889 ft 520 kts 41°
2026-04-26 11:18 -14.62878 179.11723 34889 ft 520 kts 41°
2026-04-26 11:18 -14.58390 179.16002 34889 ft 519 kts 41°
2026-04-26 11:19 -14.53160 179.20985 34886 ft 519 kts 41°
2026-04-26 11:19 -14.48133 179.25771 34884 ft 519 kts 41°
2026-04-26 11:20 -14.44469 179.29258 34886 ft 519 kts 41°
2026-04-26 11:20 -14.39448 179.34034 34888 ft 518 kts 41°
2026-04-26 11:21 -14.34812 179.38439 34887 ft 519 kts 41°
2026-04-26 11:21 -14.30190 179.42830 34885 ft 519 kts 41°
2026-04-26 11:22 -14.25275 179.47497 34884 ft 518 kts 41°
2026-04-26 11:22 -14.20559 179.51971 34887 ft 519 kts 41°
2026-04-26 11:23 -14.16100 179.56199 34889 ft 519 kts 41°
2026-04-26 11:23 -14.12036 179.60050 34888 ft 519 kts 41°
2026-04-26 11:24 -14.07673 179.64183 34889 ft 518 kts 41°
2026-04-26 11:24 -14.03315 179.68309 34891 ft 518 kts 41°
2026-04-26 11:25 -13.99250 179.72156 34885 ft 518 kts 41°
2026-04-26 11:25 -13.95470 179.75731 34886 ft 518 kts 41°
2026-04-26 11:26 -13.91657 179.79334 34886 ft 518 kts 41°
2026-04-26 11:26 -13.88204 179.82598 34886 ft 517 kts 41°
2026-04-26 11:27 -13.83842 179.86718 34882 ft 517 kts 41°
2026-04-26 11:27 -13.79431 179.90881 34880 ft 517 kts 41°
2026-04-26 11:28 -13.74800 179.95250 34880 ft 517 kts 41°
2026-04-26 11:28 -13.69910 179.99861 34883 ft 518 kts 41°
2026-04-26 11:29 -13.65079 -179.95587 34876 ft 518 kts 41°
2026-04-26 11:29 -13.60133 -179.90929 34873 ft 519 kts 41°
2026-04-26 11:30 -13.55867 -179.86913 34873 ft 518 kts 41°
2026-04-26 11:30 -13.50042 -179.81436 34876 ft 519 kts 41°
2026-04-26 11:31 -13.45003 -179.76697 34877 ft 519 kts 41°
2026-04-26 11:31 -13.40134 -179.72124 34876 ft 520 kts 41°
2026-04-26 11:32 -13.35865 -179.68113 34877 ft 520 kts 41°
2026-04-26 11:32 -13.30998 -179.63547 34875 ft 520 kts 41°
2026-04-26 11:33 -13.25951 -179.58812 34874 ft 520 kts 41°
2026-04-26 11:33 -13.21332 -179.54482 34875 ft 519 kts 41°
2026-04-26 11:34 -13.16849 -179.50283 34877 ft 519 kts 41°
2026-04-26 11:34 -13.11525 -179.45297 34874 ft 519 kts 42°
2026-04-26 11:35 -13.06297 -179.40404 34869 ft 520 kts 42°
2026-04-26 11:35 -13.02737 -179.37074 34872 ft 520 kts 42°
2026-04-26 11:36 -12.97938 -179.32587 34870 ft 520 kts 42°
2026-04-26 11:36 -12.93792 -179.28714 34868 ft 520 kts 42°
2026-04-26 11:37 -12.89085 -179.24318 34867 ft 520 kts 42°
2026-04-26 11:37 -12.84918 -179.20428 34867 ft 520 kts 42°
2026-04-26 11:38 -12.80889 -179.16668 34869 ft 520 kts 42°
2026-04-26 11:38 -12.77182 -179.13210 34868 ft 520 kts 42°
2026-04-26 11:39 -12.73398 -179.09683 34868 ft 521 kts 42°
2026-04-26 11:39 -12.69211 -179.05781 34871 ft 521 kts 42°
2026-04-26 11:40 -12.64330 -179.01235 34871 ft 521 kts 42°
2026-04-26 11:40 -12.60316 -178.97498 34870 ft 521 kts 42°
2026-04-26 11:42 -12.41406 -178.79916 34866 ft 521 kts 42°
2026-04-26 11:43 -12.37390 -178.76186 34867 ft 521 kts 42°
2026-04-26 11:43 -12.31990 -178.71175 34867 ft 521 kts 42°
2026-04-26 11:44 -12.27804 -178.67291 34863 ft 521 kts 42°
2026-04-26 11:44 -12.23762 -178.63543 34864 ft 521 kts 43°
2026-04-26 11:45 -12.18776 -178.58922 34864 ft 521 kts 43°
2026-04-26 11:45 -12.13419 -178.53960 34867 ft 522 kts 43°
2026-04-26 11:46 -12.09243 -178.50094 34864 ft 522 kts 43°
2026-04-26 11:46 -12.04836 -178.46016 34866 ft 521 kts 43°
2026-04-26 11:47 -12.00464 -178.41971 34864 ft 522 kts 43°
2026-04-26 11:47 -11.95569 -178.37691 34878 ft 521 kts 40°
2026-04-26 11:48 -11.90954 -178.33538 34868 ft 521 kts 42°
2026-04-26 11:48 -11.86170 -178.29414 34868 ft 522 kts 40°
2026-04-26 11:49 -11.81247 -178.25160 34872 ft 521 kts 42°
2026-04-26 11:49 -11.76525 -178.21003 34873 ft 521 kts 41°
2026-04-26 11:50 -11.71981 -178.17114 34866 ft 522 kts 41°
2026-04-26 11:50 -11.67568 -178.13241 34863 ft 521 kts 41°
2026-04-26 11:51 -11.62668 -178.09006 34867 ft 521 kts 41°
2026-04-26 11:51 -11.57859 -178.04833 34865 ft 521 kts 42°
2026-04-26 11:52 -11.53713 -178.01227 34865 ft 521 kts 41°
2026-04-26 11:52 -11.49783 -177.97836 34865 ft 521 kts 41°
2026-04-26 11:53 -11.45972 -177.94528 34864 ft 521 kts 41°
2026-04-26 11:54 -11.41116 -177.90321 34866 ft 522 kts 41°
2026-04-26 11:54 -11.37445 -177.87148 34865 ft 522 kts 41°
2026-04-26 11:55 -11.33959 -177.84127 34864 ft 522 kts 41°
2026-04-26 11:55 -11.30556 -177.81183 34867 ft 522 kts 41°
2026-04-26 11:56 -11.26741 -177.77887 34867 ft 523 kts 41°
2026-04-26 11:56 -11.21653 -177.73486 34864 ft 523 kts 41°
2026-04-26 11:57 -11.16296 -177.68859 34861 ft 523 kts 41°
2026-04-26 11:57 -11.10804 -177.64115 34858 ft 523 kts 41°
2026-04-26 11:58 -11.05458 -177.59502 34860 ft 523 kts 41°
2026-04-26 11:58 -11.00164 -177.54933 34862 ft 523 kts 41°
2026-04-26 11:59 -10.94844 -177.50348 34863 ft 524 kts 41°
2026-04-26 11:59 -10.89947 -177.46126 34861 ft 524 kts 41°
2026-04-26 12:00 -10.85223 -177.42056 34863 ft 524 kts 41°
2026-04-26 12:00 -10.81149 -177.38548 34866 ft 524 kts 41°
2026-04-26 12:01 -10.78188 -177.35998 34864 ft 524 kts 41°
2026-04-26 12:01 -10.73991 -177.32387 34864 ft 524 kts 41°
2026-04-26 12:02 -10.69350 -177.28394 34858 ft 524 kts 41°
2026-04-26 12:02 -10.64784 -177.24468 34856 ft 524 kts 41°
2026-04-26 12:03 -10.60001 -177.20357 34861 ft 524 kts 41°
2026-04-26 12:03 -10.56609 -177.17441 34862 ft 524 kts 41°
2026-04-26 12:04 -10.54106 -177.15292 34858 ft 525 kts 42°
2026-04-26 12:04 -10.51231 -177.12824 34857 ft 525 kts 42°
2026-04-26 12:05 -10.47339 -177.09481 34854 ft 525 kts 42°
2026-04-26 12:05 -10.44372 -177.06934 34853 ft 525 kts 41°
2026-04-26 12:06 -10.41128 -177.04152 34856 ft 525 kts 42°
2026-04-26 12:06 -10.38307 -177.01731 34855 ft 525 kts 42°
2026-04-26 12:07 -10.34756 -176.98685 34855 ft 525 kts 41°
2026-04-26 12:07 -10.31537 -176.95927 34855 ft 525 kts 42°
2026-04-26 12:08 -10.27906 -176.92813 34857 ft 525 kts 41°
2026-04-26 12:08 -10.23478 -176.89020 34857 ft 525 kts 41°
2026-04-26 12:09 -10.19612 -176.85709 34860 ft 525 kts 41°
2026-04-26 12:09 -10.16927 -176.83410 34859 ft 525 kts 41°
2026-04-26 12:10 -10.14234 -176.81104 34861 ft 525 kts 41°
2026-04-26 12:10 -10.10608 -176.78001 34853 ft 525 kts 41°
2026-04-26 12:11 -10.06609 -176.74580 34852 ft 525 kts 41°
2026-04-26 12:11 -10.02638 -176.71183 34844 ft 525 kts 41°
2026-04-26 12:12 -9.99157 -176.68206 34848 ft 525 kts 41°
2026-04-26 12:12 -9.94596 -176.64309 34845 ft 525 kts 41°
2026-04-26 12:13 -9.88934 -176.59471 34847 ft 525 kts 41°
2026-04-26 12:13 -9.83327 -176.54683 34847 ft 525 kts 41°
2026-04-26 12:14 -9.77762 -176.49932 34847 ft 526 kts 41°
2026-04-26 12:14 -9.72148 -176.45143 34849 ft 525 kts 41°
2026-04-26 12:15 -9.66580 -176.40395 34852 ft 526 kts 41°
2026-04-26 12:15 -9.60966 -176.35608 34850 ft 525 kts 41°
2026-04-26 12:16 -9.55398 -176.30865 34851 ft 525 kts 41°
2026-04-26 12:16 -9.49799 -176.26098 34852 ft 526 kts 41°
2026-04-26 12:17 -9.44190 -176.21322 34847 ft 525 kts 41°
2026-04-26 12:17 -9.38584 -176.16551 34850 ft 526 kts 41°
2026-04-26 12:18 -9.33007 -176.11809 34848 ft 526 kts 41°
2026-04-26 12:18 -9.27402 -176.07043 34848 ft 526 kts 41°
2026-04-26 12:19 -9.21799 -176.02276 34847 ft 525 kts 41°
2026-04-26 12:19 -9.16205 -175.97501 34846 ft 526 kts 41°
2026-04-26 12:20 -9.10603 -175.92732 34845 ft 526 kts 41°
2026-04-26 12:20 -9.05037 -175.87989 34845 ft 526 kts 41°
2026-04-26 12:21 -8.99437 -175.83224 34842 ft 526 kts 41°
2026-04-26 12:21 -8.93827 -175.78451 34841 ft 526 kts 41°
2026-04-26 12:22 -8.88246 -175.73704 34842 ft 526 kts 41°
2026-04-26 12:22 -8.82629 -175.68928 34842 ft 526 kts 41°
2026-04-26 12:23 -8.77027 -175.64167 34838 ft 526 kts 41°
2026-04-26 12:23 -8.71450 -175.59429 34841 ft 527 kts 41°
2026-04-26 12:24 -8.65815 -175.54644 34839 ft 527 kts 41°
2026-04-26 12:24 -8.60216 -175.49890 34837 ft 527 kts 41°
2026-04-26 12:25 -8.51779 -175.42734 34834 ft 527 kts 41°
2026-04-26 12:25 -8.46176 -175.37983 34837 ft 528 kts 41°
2026-04-26 12:26 -8.40545 -175.33209 34838 ft 528 kts 41°
2026-04-26 12:26 -8.34915 -175.28439 34834 ft 527 kts 41°
2026-04-26 12:27 -8.29314 -175.23695 34832 ft 528 kts 41°
2026-04-26 12:27 -8.23683 -175.18928 34826 ft 528 kts 41°
2026-04-26 12:28 -8.18048 -175.14160 34832 ft 528 kts 41°
2026-04-26 12:28 -8.12411 -175.09389 34831 ft 528 kts 41°
2026-04-26 12:29 -8.06819 -175.04662 34832 ft 528 kts 41°
2026-04-26 12:30 -7.98361 -174.97511 34823 ft 528 kts 41°
2026-04-26 12:30 -7.92724 -174.92746 34824 ft 528 kts 41°
2026-04-26 12:31 -7.84292 -174.85628 34826 ft 528 kts 41°
2026-04-26 12:31 -7.78665 -174.80877 34826 ft 528 kts 41°
2026-04-26 12:32 -7.73024 -174.76120 34827 ft 528 kts 41°
2026-04-26 12:33 -7.64595 -174.69008 34826 ft 528 kts 41°
2026-04-26 12:33 -7.59871 -174.65026 34824 ft 528 kts 41°
2026-04-26 12:34 -7.54261 -174.60297 34823 ft 528 kts 41°
2026-04-26 12:34 -7.48614 -174.55539 34822 ft 528 kts 41°
2026-04-26 12:35 -7.43008 -174.50818 34820 ft 528 kts 41°
2026-04-26 12:35 -7.37371 -174.46072 34821 ft 528 kts 41°
2026-04-26 12:36 -7.31711 -174.41309 34818 ft 529 kts 41°
2026-04-26 12:36 -7.26080 -174.36572 34815 ft 529 kts 41°
2026-04-26 12:37 -7.20425 -174.31815 34819 ft 529 kts 41°
2026-04-26 12:37 -7.14774 -174.27063 34817 ft 529 kts 41°
2026-04-26 12:38 -7.09155 -174.22341 34816 ft 529 kts 41°
2026-04-26 12:38 -7.03486 -174.17577 34814 ft 529 kts 41°
2026-04-26 12:39 -6.97862 -174.12853 34815 ft 529 kts 41°
2026-04-26 12:39 -6.92196 -174.08096 34815 ft 529 kts 41°
2026-04-26 12:40 -6.86569 -174.03372 34815 ft 529 kts 41°
2026-04-26 12:40 -6.80908 -173.98622 34814 ft 529 kts 41°
2026-04-26 12:41 -6.75238 -173.93866 34810 ft 529 kts 41°
2026-04-26 12:41 -6.69604 -173.89141 34814 ft 529 kts 41°
2026-04-26 12:42 -6.63932 -173.84386 34807 ft 529 kts 41°
2026-04-26 12:42 -6.58287 -173.79656 34810 ft 529 kts 41°
2026-04-26 12:43 -6.52621 -173.74908 34808 ft 529 kts 41°
2026-04-26 12:43 -6.46953 -173.70161 34809 ft 529 kts 41°
2026-04-26 12:44 -6.41319 -173.65443 34808 ft 529 kts 41°
2026-04-26 12:44 -6.35655 -173.60701 34808 ft 529 kts 41°
2026-04-26 12:45 -6.29980 -173.55954 34804 ft 530 kts 41°
2026-04-26 12:45 -6.24340 -173.51234 34802 ft 529 kts 40°
2026-04-26 12:46 -6.18656 -173.46481 34806 ft 530 kts 40°
2026-04-26 12:46 -6.13012 -173.41762 34803 ft 530 kts 40°
2026-04-26 12:47 -6.07339 -173.37021 34800 ft 530 kts 40°
2026-04-26 12:47 -6.01703 -173.32310 34800 ft 530 kts 40°
2026-04-26 12:48 -5.96027 -173.27569 34798 ft 530 kts 40°
2026-04-26 12:48 -5.90349 -173.22826 34800 ft 530 kts 40°
2026-04-26 12:49 -5.84707 -173.18115 34801 ft 530 kts 40°
2026-04-26 12:49 -5.79027 -173.13375 34798 ft 530 kts 40°
2026-04-26 12:50 -5.73341 -173.08630 34799 ft 529 kts 40°
2026-04-26 12:50 -5.67691 -173.03916 34799 ft 530 kts 40°
2026-04-26 12:51 -5.62050 -172.99212 34792 ft 530 kts 40°
2026-04-26 12:51 -5.56377 -172.94481 34797 ft 529 kts 40°
2026-04-26 12:52 -5.50705 -172.89753 34793 ft 529 kts 40°
2026-04-26 12:52 -5.45062 -172.85051 34795 ft 529 kts 40°
2026-04-26 12:53 -5.39384 -172.80320 34792 ft 529 kts 40°
2026-04-26 12:53 -5.33825 -172.75548 34803 ft 527 kts 44°
2026-04-26 12:54 -5.28482 -172.70457 34792 ft 528 kts 44°
2026-04-26 12:54 -5.23177 -172.65403 34788 ft 528 kts 44°
2026-04-26 12:55 -5.17847 -172.60324 34785 ft 528 kts 44°
2026-04-26 12:55 -5.12551 -172.55283 34788 ft 528 kts 44°
2026-04-26 12:56 -5.07220 -172.50205 34785 ft 528 kts 44°
2026-04-26 12:56 -5.01885 -172.45129 34788 ft 528 kts 44°
2026-04-26 12:57 -4.96551 -172.40101 34787 ft 527 kts 43°
2026-04-26 12:57 -4.91137 -172.35120 34788 ft 527 kts 43°
2026-04-26 12:58 -4.83098 -172.27634 34788 ft 527 kts 42°
2026-04-26 12:58 -4.77707 -172.22632 34781 ft 527 kts 43°
2026-04-26 12:59 -4.72317 -172.17626 34786 ft 527 kts 42°
2026-04-26 12:59 -4.66925 -172.12624 34782 ft 527 kts 42°
2026-04-26 13:00 -4.61540 -172.07627 34786 ft 527 kts 42°
2026-04-26 13:00 -4.56184 -172.02660 34779 ft 527 kts 42°
2026-04-26 13:01 -4.50787 -171.97655 34784 ft 527 kts 42°
2026-04-26 13:01 -4.45414 -171.92673 34784 ft 527 kts 42°
2026-04-26 13:02 -4.40022 -171.87675 34785 ft 527 kts 42°
2026-04-26 13:02 -4.34629 -171.82677 34775 ft 527 kts 42°
2026-04-26 13:03 -4.29269 -171.77710 34780 ft 527 kts 41°
2026-04-26 13:03 -4.23872 -171.72709 34774 ft 527 kts 41°
2026-04-26 13:04 -4.18506 -171.67740 34774 ft 527 kts 41°
2026-04-26 13:04 -4.13118 -171.62749 34779 ft 527 kts 41°
2026-04-26 13:05 -4.07762 -171.57792 34776 ft 526 kts 41°
2026-04-26 13:05 -4.02379 -171.52807 34774 ft 526 kts 41°
2026-04-26 13:06 -3.97021 -171.47849 34777 ft 526 kts 41°
2026-04-26 13:06 -3.91623 -171.42853 34776 ft 526 kts 41°
2026-04-26 13:07 -3.86278 -171.37908 34777 ft 526 kts 41°
2026-04-26 13:07 -3.80894 -171.32928 34779 ft 526 kts 41°
2026-04-26 13:08 -3.75516 -171.27954 34778 ft 526 kts 41°
2026-04-26 13:08 -3.70127 -171.22972 34774 ft 526 kts 41°
2026-04-26 13:09 -3.64763 -171.18012 34777 ft 526 kts 41°
2026-04-26 13:09 -3.59368 -171.13025 34762 ft 526 kts 41°
2026-04-26 13:10 -3.53999 -171.08063 34778 ft 526 kts 41°
2026-04-26 13:10 -3.48649 -171.03119 34767 ft 526 kts 41°
2026-04-26 13:11 -3.43259 -170.98139 34764 ft 526 kts 41°
2026-04-26 13:11 -3.38114 -170.92914 34765 ft 527 kts 45°
2026-04-26 13:12 -3.33074 -170.87637 34767 ft 527 kts 45°
2026-04-26 13:12 -3.28016 -170.82301 34768 ft 527 kts 45°
2026-04-26 13:13 -3.22983 -170.77015 34767 ft 526 kts 45°
2026-04-26 13:13 -3.17921 -170.71689 34765 ft 526 kts 45°
2026-04-26 13:14 -3.12864 -170.66374 34766 ft 526 kts 44°
2026-04-26 13:14 -3.07833 -170.61084 34770 ft 526 kts 44°
2026-04-26 13:15 -3.02779 -170.55772 34770 ft 526 kts 44°
2026-04-26 13:15 -2.98567 -170.51345 34783 ft 527 kts 44°
2026-04-26 13:16 -2.92677 -170.45155 34765 ft 527 kts 44°
2026-04-26 13:16 -2.87633 -170.39856 34769 ft 527 kts 44°
2026-04-26 13:17 -2.80036 -170.31875 34769 ft 527 kts 44°
2026-04-26 13:18 -2.72460 -170.23918 34772 ft 527 kts 44°
2026-04-26 13:19 -2.64854 -170.15931 34774 ft 527 kts 43°
2026-04-26 13:19 -2.59814 -170.10640 34770 ft 528 kts 43°
2026-04-26 13:20 -2.54736 -170.05309 34770 ft 528 kts 43°
2026-04-26 13:20 -2.50520 -170.00884 34771 ft 528 kts 43°
2026-04-26 13:21 -2.45437 -169.95548 34771 ft 529 kts 43°
2026-04-26 13:21 -2.40383 -169.90245 34773 ft 529 kts 43°
2026-04-26 13:22 -2.35322 -169.84935 34767 ft 529 kts 43°
2026-04-26 13:22 -2.30230 -169.79592 34774 ft 529 kts 43°
2026-04-26 13:23 -2.25169 -169.74282 34773 ft 529 kts 43°
2026-04-26 13:23 -2.20066 -169.68930 34771 ft 530 kts 43°
2026-04-26 13:24 -2.14972 -169.63587 34778 ft 530 kts 43°
2026-04-26 13:24 -2.09897 -169.58264 34770 ft 530 kts 43°
2026-04-26 13:25 -2.04800 -169.52920 34776 ft 530 kts 43°
2026-04-26 13:25 -1.99738 -169.47611 34776 ft 531 kts 43°
2026-04-26 13:26 -1.94627 -169.42253 34775 ft 531 kts 43°
2026-04-26 13:26 -1.89515 -169.36894 34773 ft 531 kts 43°
2026-04-26 13:27 -1.84440 -169.31574 34771 ft 531 kts 43°
2026-04-26 13:27 -1.79329 -169.26217 34770 ft 532 kts 43°
2026-04-26 13:28 -1.74217 -169.20859 34775 ft 532 kts 43°
2026-04-26 13:28 -1.69135 -169.15534 34775 ft 532 kts 43°
2026-04-26 13:29 -1.64014 -169.10168 34774 ft 532 kts 43°
2026-04-26 13:29 -1.58897 -169.04806 34772 ft 533 kts 43°
2026-04-26 13:30 -1.53808 -168.99474 34773 ft 533 kts 43°
2026-04-26 13:30 -1.48670 -168.94092 34776 ft 534 kts 43°
2026-04-26 13:31 -1.43569 -168.88748 34773 ft 534 kts 43°
2026-04-26 13:31 -1.38425 -168.83359 34775 ft 534 kts 43°
2026-04-26 13:32 -1.33290 -168.77981 34775 ft 534 kts 43°
2026-04-26 13:32 -1.28181 -168.72630 34775 ft 534 kts 43°
2026-04-26 13:33 -1.23032 -168.67238 34776 ft 534 kts 43°
2026-04-26 13:33 -1.17921 -168.61885 34776 ft 534 kts 43°
2026-04-26 13:34 -1.12789 -168.56511 34777 ft 534 kts 43°
2026-04-26 13:34 -1.07676 -168.51157 34774 ft 534 kts 43°
2026-04-26 13:35 -1.02535 -168.45775 34773 ft 534 kts 43°
2026-04-26 13:35 -0.97399 -168.40396 34778 ft 534 kts 43°
2026-04-26 13:36 -0.92263 -168.35019 34774 ft 534 kts 43°
2026-04-26 13:36 -0.87153 -168.29670 34776 ft 534 kts 43°
2026-04-26 13:37 -0.82009 -168.24285 34778 ft 534 kts 43°
2026-04-26 13:37 -0.76870 -168.18905 34774 ft 535 kts 43°
2026-04-26 13:38 -0.71756 -168.13551 34778 ft 535 kts 43°
2026-04-26 13:38 -0.66624 -168.08180 35066 ft 537 kts 43°
2026-04-26 13:38 -0.64042 -168.05478 35398 ft 536 kts 43°
2026-04-26 13:39 -0.61464 -168.02778 35727 ft 536 kts 43°
2026-04-26 13:39 -0.58965 -168.00163 36050 ft 536 kts 42°
2026-04-26 13:39 -0.56368 -167.97445 36371 ft 535 kts 42°
2026-04-26 13:39 -0.53765 -167.94721 36695 ft 535 kts 42°
2026-04-26 13:40 -0.51283 -167.92124 36764 ft 539 kts 42°
2026-04-26 13:40 -0.46728 -167.87352 36774 ft 531 kts 42°
2026-04-26 13:41 -0.42770 -167.83215 36764 ft 533 kts 42°
2026-04-26 13:41 -0.38709 -167.78961 36771 ft 532 kts 42°
2026-04-26 13:42 -0.34758 -167.74827 36772 ft 532 kts 42°
2026-04-26 13:42 -0.31142 -167.71045 36769 ft 532 kts 42°
2026-04-26 13:43 -0.27218 -167.66936 36771 ft 532 kts 42°
2026-04-26 13:43 -0.23345 -167.62884 36774 ft 532 kts 42°
2026-04-26 13:44 -0.19340 -167.58692 36776 ft 532 kts 42°
2026-04-26 13:44 -0.15653 -167.54833 36776 ft 532 kts 42°
2026-04-26 13:45 -0.11373 -167.50355 36776 ft 532 kts 42°
2026-04-26 13:45 -0.06978 -167.45755 36777 ft 532 kts 42°
2026-04-26 13:46 -0.01841 -167.40379 36779 ft 532 kts 42°
2026-04-26 13:46 0.03201 -167.35103 36775 ft 532 kts 42°
2026-04-26 13:47 0.07873 -167.30213 36776 ft 532 kts 42°
2026-04-26 13:47 0.12415 -167.25460 36777 ft 532 kts 42°
2026-04-26 13:48 0.17200 -167.20452 36778 ft 531 kts 42°
2026-04-26 13:48 0.21783 -167.15657 36776 ft 531 kts 42°
2026-04-26 13:49 0.26739 -167.10469 36780 ft 531 kts 42°
2026-04-26 13:49 0.31794 -167.05179 36780 ft 531 kts 42°
2026-04-26 13:50 0.36779 -166.99962 36783 ft 531 kts 42°
2026-04-26 13:50 0.40340 -166.96234 36782 ft 531 kts 42°
2026-04-26 13:51 0.45448 -166.90878 36783 ft 531 kts 42°
2026-04-26 13:51 0.49623 -166.86504 36785 ft 531 kts 42°
2026-04-26 13:52 0.54507 -166.81384 36784 ft 531 kts 43°
2026-04-26 13:52 0.59556 -166.76093 36784 ft 530 kts 43°
2026-04-26 13:53 0.64567 -166.70841 36788 ft 530 kts 43°
2026-04-26 13:53 0.69427 -166.65745 36789 ft 530 kts 43°
2026-04-26 13:54 0.74350 -166.60585 36786 ft 530 kts 43°
2026-04-26 13:54 0.79374 -166.55319 36790 ft 530 kts 43°
2026-04-26 13:55 0.85853 -166.48527 36791 ft 530 kts 43°
2026-04-26 13:56 0.94286 -166.39687 36792 ft 530 kts 43°
2026-04-26 13:56 0.99273 -166.34459 36796 ft 530 kts 43°
2026-04-26 13:57 1.04204 -166.29288 36798 ft 530 kts 43°
2026-04-26 13:57 1.09184 -166.24067 36798 ft 530 kts 43°
2026-04-26 13:58 1.14233 -166.18772 36799 ft 530 kts 43°
2026-04-26 13:58 1.19336 -166.13421 36799 ft 530 kts 43°
2026-04-26 13:59 1.24450 -166.08059 36800 ft 529 kts 43°
2026-04-26 13:59 1.29487 -166.02776 36798 ft 529 kts 43°
2026-04-26 14:00 1.39662 -165.92104 36798 ft 528 kts 43°
2026-04-26 14:01 1.44756 -165.86761 36799 ft 528 kts 43°
2026-04-26 14:01 1.49783 -165.81487 36797 ft 528 kts 43°
2026-04-26 14:02 1.54820 -165.76203 36798 ft 527 kts 43°
2026-04-26 14:02 1.59898 -165.70875 36801 ft 527 kts 43°
2026-04-26 14:03 1.64956 -165.65569 36799 ft 527 kts 43°
2026-04-26 14:03 1.69892 -165.60388 36804 ft 527 kts 43°
2026-04-26 14:04 1.74528 -165.55523 36801 ft 527 kts 43°
2026-04-26 14:04 1.78993 -165.50838 36800 ft 527 kts 43°
2026-04-26 14:05 1.83517 -165.46089 36802 ft 528 kts 43°
2026-04-26 14:05 1.88335 -165.41032 36803 ft 527 kts 43°
2026-04-26 14:06 1.93028 -165.36105 36804 ft 527 kts 43°
2026-04-26 14:06 1.97417 -165.31498 36803 ft 527 kts 43°
2026-04-26 14:07 2.02445 -165.26219 36801 ft 527 kts 43°
2026-04-26 14:07 2.07482 -165.20929 36802 ft 528 kts 43°
2026-04-26 14:08 2.12587 -165.15568 36806 ft 528 kts 43°
2026-04-26 14:08 2.17592 -165.10312 36805 ft 528 kts 43°
2026-04-26 14:09 2.22663 -165.04986 36805 ft 528 kts 43°
2026-04-26 14:09 2.27781 -164.99609 36807 ft 529 kts 44°
2026-04-26 14:10 2.32858 -164.94276 36808 ft 529 kts 44°
2026-04-26 14:10 2.37914 -164.88964 36805 ft 529 kts 44°
2026-04-26 14:11 2.45526 -164.80965 36808 ft 529 kts 44°
2026-04-26 14:11 2.49772 -164.76503 36810 ft 529 kts 44°
2026-04-26 14:12 2.54837 -164.71178 36811 ft 529 kts 44°
2026-04-26 14:12 2.59873 -164.65885 36804 ft 529 kts 44°
2026-04-26 14:13 2.67422 -164.57948 36807 ft 529 kts 44°
2026-04-26 14:14 2.72456 -164.52654 36806 ft 529 kts 44°
2026-04-26 14:14 2.77154 -164.47713 36804 ft 530 kts 44°
2026-04-26 14:15 2.81292 -164.43360 36806 ft 530 kts 44°
2026-04-26 14:15 2.85647 -164.38780 36808 ft 529 kts 44°
2026-04-26 14:16 2.90370 -164.33811 36808 ft 530 kts 44°
2026-04-26 14:16 2.94728 -164.29225 36809 ft 530 kts 44°
2026-04-26 14:17 2.99527 -164.24174 36808 ft 530 kts 44°
2026-04-26 14:17 3.04109 -164.19352 36808 ft 530 kts 44°
2026-04-26 14:18 3.08554 -164.14673 36807 ft 531 kts 44°
2026-04-26 14:18 3.13541 -164.09423 36812 ft 531 kts 44°
2026-04-26 14:19 3.18479 -164.04224 36808 ft 531 kts 44°
2026-04-26 14:19 3.23400 -163.99042 36807 ft 531 kts 44°
2026-04-26 14:20 3.28279 -163.93903 36810 ft 532 kts 44°
2026-04-26 14:20 3.33333 -163.88580 36809 ft 532 kts 44°
2026-04-26 14:21 3.38207 -163.83445 36811 ft 532 kts 44°
2026-04-26 14:21 3.43208 -163.78175 36812 ft 532 kts 44°
2026-04-26 14:22 3.47393 -163.73764 36809 ft 533 kts 44°
2026-04-26 14:22 3.50774 -163.70201 36811 ft 533 kts 44°
2026-04-26 14:23 3.55709 -163.64999 36806 ft 533 kts 44°
2026-04-26 14:23 3.60277 -163.60182 36808 ft 533 kts 44°
2026-04-26 14:24 3.63082 -163.57225 36811 ft 534 kts 44°
2026-04-26 14:24 3.66045 -163.54100 36811 ft 534 kts 44°
2026-04-26 14:25 3.69474 -163.50484 36809 ft 534 kts 44°
2026-04-26 14:25 3.72366 -163.47434 36813 ft 534 kts 44°
2026-04-26 14:26 3.75191 -163.44454 36808 ft 534 kts 44°
2026-04-26 14:26 3.77811 -163.41689 36808 ft 534 kts 44°
2026-04-26 14:27 3.81831 -163.37448 36810 ft 534 kts 44°
2026-04-26 14:27 3.86337 -163.32693 36811 ft 534 kts 44°
2026-04-26 14:28 3.89919 -163.28912 36813 ft 535 kts 43°
2026-04-26 14:28 3.92633 -163.26048 36810 ft 535 kts 43°
2026-04-26 14:29 3.95443 -163.23081 36811 ft 535 kts 43°
2026-04-26 14:29 3.98168 -163.20204 36810 ft 535 kts 43°
2026-04-26 14:30 4.01398 -163.16793 36811 ft 535 kts 43°
2026-04-26 14:30 4.04783 -163.13218 36810 ft 535 kts 43°
2026-04-26 14:31 4.06912 -163.10970 36813 ft 535 kts 43°
2026-04-26 14:31 4.08957 -163.08810 36812 ft 535 kts 43°
2026-04-26 14:32 4.10832 -163.06830 36815 ft 535 kts 43°
2026-04-26 14:32 4.12964 -163.04578 36800 ft 536 kts 43°
2026-04-26 14:33 4.14755 -163.02685 36788 ft 536 kts 43°
2026-04-26 14:33 4.16780 -163.00542 36790 ft 535 kts 43°
2026-04-26 14:34 4.18654 -162.98561 36794 ft 535 kts 43°
2026-04-26 14:34 4.21212 -162.95862 36797 ft 535 kts 43°
2026-04-26 14:35 4.23344 -162.93613 36803 ft 535 kts 43°
2026-04-26 14:35 4.25218 -162.91631 36807 ft 535 kts 43°
2026-04-26 14:36 4.27430 -162.89287 36808 ft 535 kts 43°
2026-04-26 14:36 4.29303 -162.87304 36805 ft 536 kts 43°
2026-04-26 14:37 4.31323 -162.85115 36806 ft 537 kts 46°
2026-04-26 14:37 4.33738 -162.82266 36809 ft 538 kts 47°
2026-04-26 14:38 4.35576 -162.80065 36811 ft 538 kts 46°
2026-04-26 14:38 4.37372 -162.77993 36814 ft 538 kts 45°
2026-04-26 14:39 4.39797 -162.75318 36815 ft 537 kts 43°
2026-04-26 14:39 4.42203 -162.72793 36812 ft 537 kts 44°
2026-04-26 14:40 4.44796 -162.69913 36812 ft 538 kts 47°
2026-04-26 14:40 4.47201 -162.66998 36811 ft 539 kts 47°
2026-04-26 14:41 4.49609 -162.64249 36806 ft 537 kts 44°
2026-04-26 14:41 4.52990 -162.60651 36808 ft 536 kts 45°
2026-04-26 14:42 4.56910 -162.56116 36819 ft 537 kts 46°
2026-04-26 14:42 4.59507 -162.53135 36817 ft 537 kts 45°
2026-04-26 14:43 4.63116 -162.49189 36813 ft 536 kts 45°
2026-04-26 14:43 4.66673 -162.45133 36811 ft 537 kts 46°
2026-04-26 14:44 4.68712 -162.42787 36810 ft 536 kts 45°
2026-04-26 14:44 4.70857 -162.40372 36809 ft 536 kts 45°
2026-04-26 14:45 4.75698 -162.34977 36808 ft 537 kts 46°
2026-04-26 14:45 4.80647 -162.29345 36815 ft 537 kts 45°
2026-04-26 14:46 4.85602 -162.23780 36815 ft 537 kts 45°
2026-04-26 14:46 4.90535 -162.18193 36815 ft 537 kts 45°
2026-04-26 14:47 4.95510 -162.12585 36816 ft 537 kts 45°
2026-04-26 14:47 5.00450 -162.06999 36816 ft 537 kts 45°
2026-04-26 14:48 5.05430 -162.01375 36819 ft 538 kts 45°
2026-04-26 14:48 5.10405 -161.95751 36820 ft 538 kts 45°
2026-04-26 14:49 5.15348 -161.90164 36818 ft 538 kts 45°
2026-04-26 14:49 5.20331 -161.84530 36818 ft 538 kts 45°
2026-04-26 14:50 5.25274 -161.78939 36821 ft 538 kts 45°
2026-04-26 14:50 5.30258 -161.73300 36818 ft 539 kts 46°
2026-04-26 14:51 5.35234 -161.67669 36818 ft 539 kts 46°
2026-04-26 14:51 5.40184 -161.62066 36821 ft 538 kts 46°
2026-04-26 14:52 5.45171 -161.56419 36823 ft 538 kts 46°
2026-04-26 14:52 5.50119 -161.50815 36822 ft 538 kts 46°
2026-04-26 14:53 5.55090 -161.45184 36824 ft 538 kts 46°
2026-04-26 14:53 5.60063 -161.39549 36824 ft 538 kts 46°
2026-04-26 14:54 5.65007 -161.33945 36828 ft 538 kts 46°
2026-04-26 14:54 5.69968 -161.28321 36825 ft 538 kts 46°
2026-04-26 14:55 5.74933 -161.22689 36826 ft 538 kts 46°
2026-04-26 14:55 5.79871 -161.17087 36825 ft 538 kts 46°
2026-04-26 14:56 5.84841 -161.11447 36825 ft 538 kts 46°
2026-04-26 14:56 5.88977 -161.06754 36832 ft 538 kts 46°
2026-04-26 14:57 5.94747 -161.00202 36831 ft 538 kts 46°
2026-04-26 14:57 5.98879 -160.95509 36832 ft 538 kts 46°
2026-04-26 14:58 6.03852 -160.89859 36831 ft 538 kts 46°
2026-04-26 14:58 6.08790 -160.84248 36833 ft 538 kts 46°
2026-04-26 14:59 6.13755 -160.78604 36832 ft 538 kts 46°
2026-04-26 14:59 6.18696 -160.72986 36835 ft 538 kts 46°
2026-04-26 15:00 6.23665 -160.67334 36837 ft 538 kts 47°
2026-04-26 15:00 6.28631 -160.61684 36837 ft 538 kts 47°
2026-04-26 15:01 6.33565 -160.56068 36835 ft 539 kts 47°
2026-04-26 15:01 6.38554 -160.50388 36839 ft 540 kts 47°
2026-04-26 15:02 6.43506 -160.44749 36840 ft 541 kts 47°
2026-04-26 15:02 6.48499 -160.39061 36842 ft 541 kts 47°
2026-04-26 15:03 6.53485 -160.33378 36841 ft 541 kts 47°
2026-04-26 15:03 6.58432 -160.27739 36837 ft 540 kts 47°
2026-04-26 15:04 6.63414 -160.22058 36831 ft 540 kts 47°
2026-04-26 15:04 6.68364 -160.16412 36835 ft 540 kts 47°
2026-04-26 15:05 6.73333 -160.10742 36838 ft 540 kts 47°
2026-04-26 15:05 6.78304 -160.05067 36836 ft 540 kts 47°
2026-04-26 15:06 6.83259 -159.99409 36842 ft 540 kts 47°
2026-04-26 15:06 6.88234 -159.93727 36837 ft 540 kts 47°
2026-04-26 15:07 6.95695 -159.85201 36839 ft 540 kts 47°
2026-04-26 15:07 7.00635 -159.79553 36843 ft 540 kts 47°
2026-04-26 15:08 7.05608 -159.73866 36843 ft 540 kts 47°
2026-04-26 15:08 7.10548 -159.68213 36841 ft 540 kts 47°
2026-04-26 15:09 7.15535 -159.62507 36843 ft 540 kts 47°
2026-04-26 15:09 7.20475 -159.56851 36846 ft 540 kts 47°
2026-04-26 15:10 7.24637 -159.52084 36845 ft 540 kts 47°
2026-04-26 15:10 7.30230 -159.45296 36844 ft 541 kts 48°
2026-04-26 15:11 7.35043 -159.39453 36848 ft 541 kts 49°
2026-04-26 15:11 7.39805 -159.33634 36852 ft 541 kts 48°
2026-04-26 15:12 7.44625 -159.27776 36853 ft 542 kts 49°
2026-04-26 15:12 7.49431 -159.21906 36850 ft 542 kts 49°
2026-04-26 15:13 7.54218 -159.16077 36852 ft 542 kts 49°
2026-04-26 15:13 7.59033 -159.10198 36856 ft 542 kts 49°
2026-04-26 15:14 7.63816 -159.04365 36852 ft 542 kts 49°
2026-04-26 15:14 7.68638 -158.98476 36854 ft 542 kts 49°
2026-04-26 15:15 7.73450 -158.92601 36853 ft 543 kts 49°
2026-04-26 15:15 7.78234 -158.86755 36852 ft 543 kts 49°
2026-04-26 15:16 7.83054 -158.80863 36854 ft 543 kts 49°
2026-04-26 15:16 7.87845 -158.75005 36854 ft 544 kts 49°
2026-04-26 15:17 7.91885 -158.70062 36853 ft 545 kts 49°
2026-04-26 15:17 7.97495 -158.63198 36854 ft 545 kts 49°
2026-04-26 15:18 8.02332 -158.57277 36857 ft 546 kts 49°
2026-04-26 15:18 8.07170 -158.51350 36852 ft 547 kts 49°
2026-04-26 15:19 8.11983 -158.45453 36852 ft 547 kts 49°
2026-04-26 15:19 8.16838 -158.39503 36856 ft 548 kts 49°
2026-04-26 15:20 8.21667 -158.33580 36858 ft 548 kts 49°
2026-04-26 15:20 8.26505 -158.27645 36864 ft 549 kts 49°
2026-04-26 15:21 8.31371 -158.21673 36857 ft 550 kts 49°
2026-04-26 15:21 8.36239 -158.15696 36866 ft 551 kts 49°
2026-04-26 15:22 8.41093 -158.09733 36864 ft 551 kts 48°
2026-04-26 15:22 8.45946 -158.03768 36865 ft 552 kts 48°
2026-04-26 15:23 8.50830 -157.97764 36858 ft 552 kts 48°
2026-04-26 15:23 8.55711 -157.91761 36858 ft 553 kts 48°
2026-04-26 15:24 8.60579 -157.85770 36863 ft 554 kts 48°
2026-04-26 15:24 8.65482 -157.79733 36868 ft 553 kts 48°
2026-04-26 15:25 8.69550 -157.74724 36862 ft 553 kts 48°
2026-04-26 15:25 8.75230 -157.67725 36868 ft 553 kts 48°
2026-04-26 15:26 8.80116 -157.61702 36871 ft 553 kts 48°
2026-04-26 15:26 8.84979 -157.55704 36871 ft 553 kts 48°
2026-04-26 15:27 8.89858 -157.49683 36859 ft 553 kts 48°
2026-04-26 15:27 8.94708 -157.43694 36871 ft 553 kts 49°
2026-04-26 15:28 8.99388 -157.37481 36869 ft 554 kts 49°
2026-04-26 15:28 9.04065 -157.31317 36871 ft 556 kts 50°
2026-04-26 15:29 9.08744 -157.25061 36856 ft 556 kts 50°
2026-04-26 15:30 9.18104 -157.12621 36863 ft 557 kts 50°
2026-04-26 15:30 9.22813 -157.06365 36866 ft 557 kts 50°
2026-04-26 15:31 9.29856 -156.96979 36881 ft 557 kts 50°
2026-04-26 15:32 9.36081 -156.88683 36867 ft 558 kts 50°
2026-04-26 15:32 9.41580 -156.81351 36873 ft 558 kts 49°
2026-04-26 15:33 9.46250 -156.75119 36876 ft 559 kts 49°
2026-04-26 15:33 9.50965 -156.68825 36877 ft 559 kts 49°
2026-04-26 15:34 9.55648 -156.62570 36879 ft 560 kts 49°
2026-04-26 15:34 9.60355 -156.56279 36878 ft 561 kts 49°
2026-04-26 15:35 9.65075 -156.49969 36877 ft 562 kts 49°
2026-04-26 15:35 9.69796 -156.43652 36879 ft 562 kts 49°
2026-04-26 15:36 9.74524 -156.37324 36879 ft 562 kts 49°
2026-04-26 15:36 9.79213 -156.31045 36880 ft 562 kts 49°
2026-04-26 15:37 9.83938 -156.24713 36878 ft 562 kts 49°
2026-04-26 15:37 9.88668 -156.18372 36880 ft 562 kts 49°
2026-04-26 15:38 9.93358 -156.12082 36880 ft 562 kts 49°
2026-04-26 15:38 9.98086 -156.05736 36883 ft 562 kts 49°
2026-04-26 15:39 10.02784 -155.99427 36881 ft 562 kts 49°
2026-04-26 15:39 10.05944 -155.95182 36882 ft 562 kts 49°
2026-04-26 15:40 10.12228 -155.86736 36887 ft 562 kts 49°
2026-04-26 15:40 10.16907 -155.80442 36886 ft 561 kts 49°
2026-04-26 15:41 10.21614 -155.74108 36890 ft 561 kts 49°
2026-04-26 15:41 10.26303 -155.67793 36886 ft 561 kts 49°
2026-04-26 15:42 10.30993 -155.61475 36888 ft 561 kts 49°
2026-04-26 15:42 10.34905 -155.56202 36893 ft 562 kts 49°
2026-04-26 15:43 10.40418 -155.48767 36891 ft 562 kts 49°
2026-04-26 15:44 10.47456 -155.39267 36893 ft 562 kts 49°
2026-04-26 15:44 10.54484 -155.29773 36895 ft 562 kts 49°
2026-04-26 15:45 10.60738 -155.21318 36892 ft 562 kts 49°
2026-04-26 15:46 10.67792 -155.11774 36898 ft 562 kts 49°
2026-04-26 15:46 10.71673 -155.06518 36900 ft 562 kts 49°
2026-04-26 15:47 10.79493 -154.95923 36900 ft 562 kts 49°
2026-04-26 15:48 10.84197 -154.89544 36900 ft 562 kts 49°
2026-04-26 15:48 10.88890 -154.83175 36897 ft 562 kts 49°
2026-04-26 15:49 10.93583 -154.76804 36898 ft 562 kts 49°
2026-04-26 15:49 10.98254 -154.70460 36905 ft 563 kts 49°
2026-04-26 15:50 11.02956 -154.64068 36903 ft 563 kts 49°
2026-04-26 15:50 11.07623 -154.57720 36905 ft 563 kts 49°
2026-04-26 15:51 11.12325 -154.51321 36902 ft 563 kts 49°
2026-04-26 15:51 11.17029 -154.44914 36907 ft 563 kts 49°
2026-04-26 15:52 11.21705 -154.38544 36906 ft 563 kts 49°
2026-04-26 15:52 11.26402 -154.32140 36906 ft 563 kts 49°
2026-04-26 15:53 11.31076 -154.25763 36905 ft 564 kts 49°
2026-04-26 15:53 11.35755 -154.19376 36908 ft 564 kts 49°
2026-04-26 15:54 11.40457 -154.12953 36913 ft 564 kts 49°
2026-04-26 15:54 11.45155 -154.06531 36913 ft 564 kts 49°
2026-04-26 15:55 11.49848 -154.00113 36914 ft 564 kts 49°
2026-04-26 15:55 11.54510 -153.93732 36913 ft 564 kts 49°
2026-04-26 15:56 11.59202 -153.87307 36919 ft 564 kts 49°
2026-04-26 15:56 11.63898 -153.80872 36915 ft 564 kts 49°
2026-04-26 15:57 11.68571 -153.74465 36913 ft 565 kts 49°
2026-04-26 15:57 11.73265 -153.68024 36919 ft 565 kts 49°
2026-04-26 15:58 11.77955 -153.61585 36917 ft 565 kts 49°
2026-04-26 15:58 11.82651 -153.55134 36918 ft 565 kts 49°
2026-04-26 15:59 11.87319 -153.48717 36922 ft 565 kts 49°
2026-04-26 15:59 11.92012 -153.42260 36922 ft 565 kts 49°
2026-04-26 16:00 11.96684 -153.35830 36922 ft 565 kts 49°
2026-04-26 16:00 12.01384 -153.29356 36918 ft 565 kts 49°
2026-04-26 16:01 12.06248 -153.23079 36913 ft 563 kts 45°
2026-04-26 16:01 12.11166 -153.16912 36920 ft 563 kts 45°
2026-04-26 16:02 12.16160 -153.10727 36923 ft 563 kts 45°
2026-04-26 16:02 12.21123 -153.04531 36930 ft 563 kts 45°
2026-04-26 16:03 12.26096 -152.98344 36928 ft 563 kts 45°
2026-04-26 16:03 12.31027 -152.92192 36927 ft 563 kts 45°
2026-04-26 16:04 12.35998 -152.85992 36927 ft 563 kts 45°
2026-04-26 16:04 12.40964 -152.79793 36931 ft 563 kts 45°
2026-04-26 16:05 12.45933 -152.73584 36928 ft 562 kts 45°
2026-04-26 16:05 12.50858 -152.67429 36935 ft 562 kts 45°
2026-04-26 16:06 12.55827 -152.61213 36933 ft 562 kts 45°
2026-04-26 16:06 12.60769 -152.55027 36930 ft 563 kts 45°
2026-04-26 16:07 12.65734 -152.48807 36937 ft 562 kts 45°
2026-04-26 16:07 12.70672 -152.42618 36939 ft 562 kts 45°
2026-04-26 16:08 12.75625 -152.36406 36936 ft 562 kts 46°
2026-04-26 16:08 12.80536 -152.30241 36934 ft 562 kts 46°
2026-04-26 16:09 12.85498 -152.24009 36936 ft 562 kts 46°
2026-04-26 16:09 12.90410 -152.17836 36937 ft 562 kts 46°
2026-04-26 16:10 12.95358 -152.11613 36931 ft 561 kts 46°
2026-04-26 16:10 13.00293 -152.05402 36932 ft 561 kts 46°
2026-04-26 16:11 13.05192 -151.99230 36933 ft 560 kts 46°
2026-04-26 16:11 13.10116 -151.93025 36934 ft 559 kts 46°
2026-04-26 16:12 13.15036 -151.86820 36940 ft 559 kts 46°
2026-04-26 16:12 13.22387 -151.77541 36939 ft 560 kts 46°
2026-04-26 16:13 13.27303 -151.71330 36943 ft 560 kts 46°
2026-04-26 16:13 13.32183 -151.65159 36948 ft 560 kts 46°
2026-04-26 16:14 13.37100 -151.58937 36945 ft 559 kts 46°
2026-04-26 16:15 13.44436 -151.49647 36953 ft 559 kts 46°
2026-04-26 16:15 13.49339 -151.43432 36960 ft 559 kts 46°
2026-04-26 16:16 13.56692 -151.34105 36947 ft 558 kts 46°
2026-04-26 16:16 13.61560 -151.27923 36949 ft 558 kts 46°
2026-04-26 16:17 13.66445 -151.21715 36950 ft 558 kts 46°
2026-04-26 16:17 13.71336 -151.15496 36954 ft 558 kts 46°
2026-04-26 16:18 13.78630 -151.06212 36956 ft 558 kts 46°
2026-04-26 16:19 13.85932 -150.96906 36960 ft 558 kts 46°
2026-04-26 16:20 13.93260 -150.87558 36963 ft 558 kts 47°
2026-04-26 16:20 14.00580 -150.78210 36967 ft 558 kts 47°
2026-04-26 16:21 14.05424 -150.72018 36965 ft 558 kts 47°
2026-04-26 16:21 14.10302 -150.65778 36966 ft 558 kts 47°
2026-04-26 16:22 14.15180 -150.59533 36962 ft 559 kts 47°
2026-04-26 16:22 14.20030 -150.53319 36965 ft 558 kts 47°
2026-04-26 16:23 14.24912 -150.47060 36965 ft 558 kts 47°
2026-04-26 16:23 14.29753 -150.40848 36973 ft 558 kts 47°
2026-04-26 16:24 14.34625 -150.34591 36972 ft 558 kts 47°
2026-04-26 16:24 14.39460 -150.28378 36973 ft 558 kts 47°
2026-04-26 16:25 14.44329 -150.22116 36973 ft 558 kts 47°
2026-04-26 16:25 14.49160 -150.15898 36971 ft 557 kts 47°
2026-04-26 16:26 14.53227 -150.10659 36976 ft 557 kts 47°
2026-04-26 16:26 14.58866 -150.03390 36974 ft 557 kts 47°
2026-04-26 16:27 14.63720 -149.97129 36974 ft 558 kts 47°
2026-04-26 16:27 14.68543 -149.90901 36975 ft 557 kts 48°
2026-04-26 16:28 14.73402 -149.84623 36981 ft 558 kts 48°
2026-04-26 16:28 14.78245 -149.78359 36976 ft 557 kts 48°
2026-04-26 16:29 14.83065 -149.72122 36982 ft 557 kts 48°
2026-04-26 16:29 14.87909 -149.65847 36983 ft 557 kts 48°
2026-04-26 16:30 14.92708 -149.59626 36987 ft 556 kts 48°
2026-04-26 16:30 14.97540 -149.53358 36994 ft 556 kts 48°
2026-04-26 16:31 15.01563 -149.48135 36974 ft 556 kts 48°
2026-04-26 16:31 15.06389 -149.41865 36978 ft 556 kts 48°
2026-04-26 16:32 15.11183 -149.35631 36980 ft 556 kts 48°
2026-04-26 16:32 15.16127 -149.29460 36980 ft 556 kts 48°
2026-04-26 16:33 15.21010 -149.23288 36988 ft 556 kts 46°
2026-04-26 16:33 15.25969 -149.17125 36990 ft 556 kts 47°
2026-04-26 16:34 15.30888 -149.10927 36990 ft 556 kts 47°
2026-04-26 16:34 15.35801 -149.04786 36993 ft 556 kts 47°
2026-04-26 16:35 15.40768 -148.98541 36977 ft 566 kts 46°
2026-04-26 16:35 15.45805 -148.92216 36985 ft 568 kts 46°
2026-04-26 16:36 15.50803 -148.85928 36990 ft 568 kts 46°
2026-04-26 16:36 15.55849 -148.79581 36993 ft 569 kts 46°
2026-04-26 16:37 15.60862 -148.73265 36997 ft 569 kts 46°
2026-04-26 16:37 15.65902 -148.66912 36995 ft 569 kts 46°
2026-04-26 16:38 15.70939 -148.60556 36998 ft 569 kts 46°
2026-04-26 16:38 15.75944 -148.54236 36999 ft 570 kts 47°
2026-04-26 16:39 15.80996 -148.47850 36998 ft 570 kts 47°
2026-04-26 16:39 15.86003 -148.41517 36998 ft 571 kts 47°
2026-04-26 16:40 15.90917 -148.35295 37002 ft 571 kts 47°
2026-04-26 16:40 15.95757 -148.29162 36996 ft 571 kts 47°
2026-04-26 16:41 16.00504 -148.23142 37000 ft 571 kts 47°
2026-04-26 16:41 16.05012 -148.17421 36998 ft 572 kts 47°
2026-04-26 16:42 16.09367 -148.11888 36997 ft 572 kts 47°
2026-04-26 16:42 16.13535 -148.06590 37006 ft 572 kts 47°
2026-04-26 16:43 16.18351 -148.00464 37005 ft 572 kts 47°
2026-04-26 16:43 16.22369 -147.95348 37009 ft 573 kts 47°
2026-04-26 16:44 16.26532 -147.90044 36998 ft 573 kts 47°
2026-04-26 16:44 16.30519 -147.84959 37004 ft 573 kts 47°
2026-04-26 16:45 16.34522 -147.79853 37004 ft 573 kts 47°
2026-04-26 16:45 16.39233 -147.73837 37010 ft 573 kts 47°
2026-04-26 16:46 16.43861 -147.67922 37011 ft 574 kts 47°
2026-04-26 16:46 16.46998 -147.63910 37013 ft 574 kts 47°
2026-04-26 16:47 16.50091 -147.59952 37014 ft 574 kts 47°
2026-04-26 16:47 16.53386 -147.55734 37013 ft 573 kts 47°
2026-04-26 16:48 16.57197 -147.50850 37015 ft 573 kts 47°
2026-04-26 16:48 16.60252 -147.46934 37009 ft 574 kts 47°
2026-04-26 16:49 16.62812 -147.43650 37011 ft 574 kts 47°
2026-04-26 16:49 16.65967 -147.39602 37014 ft 574 kts 47°
2026-04-26 16:50 16.68144 -147.36806 37016 ft 574 kts 47°
2026-04-26 16:50 16.70358 -147.33963 37019 ft 574 kts 47°
2026-04-26 16:51 16.73289 -147.30196 37022 ft 575 kts 47°
2026-04-26 16:51 16.76402 -147.26194 37020 ft 575 kts 47°
2026-04-26 16:52 16.78580 -147.23392 37019 ft 575 kts 47°
2026-04-26 16:52 16.83026 -147.17669 37023 ft 576 kts 47°
2026-04-26 16:53 16.85834 -147.14052 37021 ft 576 kts 47°
2026-04-26 16:53 16.89968 -147.08724 37028 ft 576 kts 47°
2026-04-26 16:54 16.94233 -147.03223 37030 ft 576 kts 47°
2026-04-26 16:54 16.98319 -146.97948 37021 ft 577 kts 47°
2026-04-26 16:55 17.02039 -146.93142 37023 ft 576 kts 47°
2026-04-26 16:55 17.05276 -146.88958 37025 ft 577 kts 47°
2026-04-26 16:56 17.09640 -146.83139 37036 ft 578 kts 51°
2026-04-26 16:57 17.12341 -146.79309 37011 ft 579 kts 49°
2026-04-26 16:57 17.16815 -146.73252 37026 ft 579 kts 50°
2026-04-26 16:58 17.18787 -146.70417 37030 ft 580 kts 51°
2026-04-26 16:59 17.23572 -146.63692 37034 ft 579 kts 49°
2026-04-26 17:00 17.30900 -146.53397 37028 ft 579 kts 50°
2026-04-26 17:00 17.36817 -146.45191 37025 ft 579 kts 50°
2026-04-26 17:01 17.38644 -146.42593 37037 ft 579 kts 50°
2026-04-26 17:01 17.40619 -146.39763 37034 ft 579 kts 50°
2026-04-26 17:02 17.43953 -146.35118 37034 ft 578 kts 49°
2026-04-26 17:02 17.47847 -146.29693 37037 ft 580 kts 50°
2026-04-26 17:03 17.50256 -146.26242 37036 ft 580 kts 50°
2026-04-26 17:03 17.53459 -146.21735 37029 ft 579 kts 49°
2026-04-26 17:04 17.56663 -146.17279 37035 ft 580 kts 50°
2026-04-26 17:04 17.59962 -146.12584 37042 ft 580 kts 50°
2026-04-26 17:05 17.62950 -146.08362 37043 ft 579 kts 50°
2026-04-26 17:05 17.67058 -146.02603 37047 ft 580 kts 50°
2026-04-26 17:06 17.71376 -145.96468 37044 ft 580 kts 50°
2026-04-26 17:06 17.75541 -145.90602 37044 ft 580 kts 50°
2026-04-26 17:07 17.79722 -145.84675 37047 ft 580 kts 50°
2026-04-26 17:07 17.84225 -145.78296 37040 ft 580 kts 50°
2026-04-26 17:08 17.88696 -145.71961 37041 ft 581 kts 50°
2026-04-26 17:08 17.93222 -145.65530 37046 ft 581 kts 50°
2026-04-26 17:09 17.97121 -145.59999 37048 ft 582 kts 50°
2026-04-26 17:09 18.02592 -145.52211 37051 ft 581 kts 50°
2026-04-26 17:10 18.07208 -145.45644 37052 ft 582 kts 50°
2026-04-26 17:10 18.11764 -145.39148 37054 ft 581 kts 50°
2026-04-26 17:11 18.16051 -145.33036 37046 ft 581 kts 50°
2026-04-26 17:11 18.20853 -145.26177 37047 ft 582 kts 50°
2026-04-26 17:12 18.28037 -145.15906 37048 ft 582 kts 50°
2026-04-26 17:13 18.35240 -145.05592 37049 ft 582 kts 50°
2026-04-26 17:14 18.42400 -144.95321 37057 ft 582 kts 50°
2026-04-26 17:14 18.49573 -144.85017 37062 ft 581 kts 50°
2026-04-26 17:15 18.56745 -144.74696 37060 ft 581 kts 50°
2026-04-26 17:16 18.61496 -144.67850 37057 ft 582 kts 50°
2026-04-26 17:16 18.66284 -144.60943 37056 ft 582 kts 50°
2026-04-26 17:17 18.71037 -144.54080 37063 ft 582 kts 50°
2026-04-26 17:17 18.75804 -144.47189 37061 ft 582 kts 50°
2026-04-26 17:18 18.80577 -144.40281 37062 ft 581 kts 50°
2026-04-26 17:18 18.85353 -144.33362 37057 ft 582 kts 50°
2026-04-26 17:19 18.92481 -144.23021 37059 ft 581 kts 51°
2026-04-26 17:19 18.97215 -144.16144 37067 ft 581 kts 51°
2026-04-26 17:20 19.00398 -144.11514 37071 ft 581 kts 51°
2026-04-26 17:20 19.05929 -144.03464 37067 ft 581 kts 51°
2026-04-26 17:21 19.10687 -143.96529 37067 ft 581 kts 51°
2026-04-26 17:21 19.15437 -143.89599 37068 ft 581 kts 51°
2026-04-26 17:22 19.20161 -143.82698 37073 ft 581 kts 51°
2026-04-26 17:22 19.24888 -143.75787 37071 ft 581 kts 51°
2026-04-26 17:23 19.29627 -143.68848 37078 ft 581 kts 51°
2026-04-26 17:23 19.34372 -143.61894 37080 ft 581 kts 51°
2026-04-26 17:24 19.39076 -143.54992 37079 ft 581 kts 51°
2026-04-26 17:24 19.43815 -143.48031 37079 ft 581 kts 51°
2026-04-26 17:25 19.48527 -143.41102 37079 ft 581 kts 51°
2026-04-26 17:25 19.53263 -143.34128 37084 ft 581 kts 51°
2026-04-26 17:26 19.57995 -143.27154 37075 ft 582 kts 51°
2026-04-26 17:26 19.62697 -143.20215 37078 ft 582 kts 51°
2026-04-26 17:27 19.67421 -143.13237 37083 ft 582 kts 51°
2026-04-26 17:27 19.72148 -143.06244 37075 ft 581 kts 51°
2026-04-26 17:28 19.76872 -142.99248 37078 ft 582 kts 51°
2026-04-26 17:28 19.81567 -142.92288 37081 ft 582 kts 51°
2026-04-26 17:29 19.85491 -142.86464 37084 ft 582 kts 51°
2026-04-26 17:29 19.90989 -142.78295 37083 ft 583 kts 51°
2026-04-26 17:30 19.95714 -142.71266 37084 ft 583 kts 51°
2026-04-26 17:30 20.00390 -142.64300 37087 ft 583 kts 51°
2026-04-26 17:31 20.05106 -142.57267 37085 ft 583 kts 51°
2026-04-26 17:31 20.09814 -142.50238 37088 ft 583 kts 51°
2026-04-26 17:32 20.14504 -142.43227 37090 ft 583 kts 51°
2026-04-26 17:32 20.18893 -142.36658 37088 ft 583 kts 51°
2026-04-26 17:33 20.22843 -142.30741 37090 ft 583 kts 51°
2026-04-26 17:34 20.28635 -142.22052 37088 ft 583 kts 51°
2026-04-26 17:34 20.32150 -142.16409 37101 ft 583 kts 54°
2026-04-26 17:35 20.35746 -142.10801 37085 ft 583 kts 52°
2026-04-26 17:35 20.38865 -142.05817 37095 ft 584 kts 55°
2026-04-26 17:36 20.41329 -142.01689 37096 ft 583 kts 54°
2026-04-26 17:36 20.45229 -141.95516 37096 ft 582 kts 53°
2026-04-26 17:37 20.49122 -141.89202 37098 ft 583 kts 54°
2026-04-26 17:37 20.52455 -141.83769 37098 ft 582 kts 53°
2026-04-26 17:38 20.57917 -141.74987 37093 ft 583 kts 54°
2026-04-26 17:38 20.61712 -141.68799 37096 ft 583 kts 53°
2026-04-26 17:39 20.65138 -141.63292 37098 ft 583 kts 53°
2026-04-26 17:39 20.68590 -141.57654 37100 ft 583 kts 54°
2026-04-26 17:40 20.70910 -141.53879 37096 ft 583 kts 53°
2026-04-26 17:40 20.75024 -141.47219 37096 ft 582 kts 54°
2026-04-26 17:41 20.78657 -141.41280 37100 ft 582 kts 54°
2026-04-26 17:41 20.82881 -141.34411 37104 ft 582 kts 54°
2026-04-26 17:42 20.86777 -141.28045 37100 ft 582 kts 54°
2026-04-26 17:42 20.90632 -141.21749 37107 ft 581 kts 54°
2026-04-26 17:43 20.94284 -141.15782 37101 ft 582 kts 54°
2026-04-26 17:43 20.98351 -141.09117 37110 ft 582 kts 54°
2026-04-26 17:44 21.02399 -141.02486 37105 ft 582 kts 54°
2026-04-26 17:44 21.06478 -140.95789 37103 ft 582 kts 54°
2026-04-26 17:45 21.10590 -140.89035 37107 ft 581 kts 54°
2026-04-26 17:45 21.14484 -140.82628 37106 ft 582 kts 54°
2026-04-26 17:46 21.18295 -140.76354 37109 ft 582 kts 54°
2026-04-26 17:46 21.22165 -140.69973 37111 ft 582 kts 54°
2026-04-26 17:47 21.25488 -140.64488 37113 ft 582 kts 54°
2026-04-26 17:47 21.29804 -140.57358 37107 ft 582 kts 54°
2026-04-26 17:48 21.33825 -140.50705 37110 ft 582 kts 54°
2026-04-26 17:48 21.37275 -140.44991 37106 ft 581 kts 54°
2026-04-26 17:49 21.40708 -140.39300 37110 ft 581 kts 54°
2026-04-26 17:49 21.43555 -140.34575 37110 ft 581 kts 54°
2026-04-26 17:50 21.46873 -140.29064 37116 ft 581 kts 54°
2026-04-26 17:50 21.50361 -140.23263 37117 ft 580 kts 54°
2026-04-26 17:51 21.53902 -140.17371 37116 ft 580 kts 54°
2026-04-26 17:51 21.57225 -140.11833 37119 ft 580 kts 54°
2026-04-26 17:52 21.61013 -140.05515 37113 ft 580 kts 54°
2026-04-26 17:52 21.64537 -139.99630 37116 ft 580 kts 54°
2026-04-26 17:53 21.67773 -139.94221 37112 ft 580 kts 54°
2026-04-26 17:54 21.73412 -139.84782 37121 ft 580 kts 54°
2026-04-26 17:54 21.77046 -139.78690 37124 ft 580 kts 54°
2026-04-26 17:55 21.80496 -139.72901 37110 ft 579 kts 54°
2026-04-26 17:55 21.84145 -139.66770 37118 ft 579 kts 54°
2026-04-26 17:56 21.88064 -139.60181 37124 ft 579 kts 54°
2026-04-26 17:57 21.95397 -139.47824 37116 ft 579 kts 54°
2026-04-26 17:57 21.98976 -139.41784 37120 ft 579 kts 54°
2026-04-26 17:58 22.06301 -139.29400 37124 ft 579 kts 55°
2026-04-26 17:59 22.10734 -139.21893 37122 ft 578 kts 55°
2026-04-26 17:59 22.13944 -139.16450 37126 ft 577 kts 55°
2026-04-26 18:00 22.17984 -139.09590 37123 ft 577 kts 55°
2026-04-26 18:00 22.22048 -139.02682 37128 ft 578 kts 55°
2026-04-26 18:01 22.25117 -138.97458 37124 ft 578 kts 55°
2026-04-26 18:01 22.28324 -138.91994 37123 ft 577 kts 55°
2026-04-26 18:02 22.30245 -138.88719 37127 ft 577 kts 55°
2026-04-26 18:02 22.34564 -138.81347 37132 ft 577 kts 55°
2026-04-26 18:03 22.37984 -138.75504 37116 ft 577 kts 55°
2026-04-26 18:03 22.40467 -138.71257 37127 ft 577 kts 55°
2026-04-26 18:04 22.44443 -138.64449 37132 ft 578 kts 55°
2026-04-26 18:05 22.48858 -138.56879 37119 ft 578 kts 55°
2026-04-26 18:05 22.51447 -138.52434 37122 ft 578 kts 55°
2026-04-26 18:06 22.54648 -138.46935 37128 ft 578 kts 55°
2026-04-26 18:06 22.58548 -138.40226 37132 ft 578 kts 55°
2026-04-26 18:07 22.61453 -138.35223 37136 ft 578 kts 55°
2026-04-26 18:07 22.64471 -138.30021 37134 ft 578 kts 55°
2026-04-26 18:08 22.67840 -138.24207 37139 ft 578 kts 55°
2026-04-26 18:08 22.71241 -138.18332 37136 ft 577 kts 55°
2026-04-26 18:09 22.74894 -138.12014 37138 ft 578 kts 55°
2026-04-26 18:09 22.79169 -138.04610 37138 ft 578 kts 56°
2026-04-26 18:10 22.83431 -137.97218 37140 ft 578 kts 56°
2026-04-26 18:10 22.87673 -137.89850 37138 ft 578 kts 56°
2026-04-26 18:11 22.91926 -137.82453 37142 ft 578 kts 56°
2026-04-26 18:11 22.96179 -137.75058 37139 ft 578 kts 55°
2026-04-26 18:12 23.00449 -137.67647 37138 ft 577 kts 56°
2026-04-26 18:12 23.04677 -137.60282 37142 ft 577 kts 56°
2026-04-26 18:13 23.08931 -137.52873 37141 ft 577 kts 56°
2026-04-26 18:13 23.13174 -137.45465 37143 ft 577 kts 56°
2026-04-26 18:14 23.17416 -137.38052 37138 ft 576 kts 56°
2026-04-26 18:14 23.21624 -137.30684 37141 ft 576 kts 56°
2026-04-26 18:15 23.25855 -137.23268 37143 ft 577 kts 56°
2026-04-26 18:15 23.30090 -137.15834 37148 ft 576 kts 56°
2026-04-26 18:16 23.34289 -137.08452 37148 ft 576 kts 56°
2026-04-26 18:16 23.40629 -136.97284 37143 ft 577 kts 56°
2026-04-26 18:17 23.44819 -136.89891 37152 ft 577 kts 56°
2026-04-26 18:17 23.49038 -136.82437 37152 ft 576 kts 56°
2026-04-26 18:18 23.53224 -136.75027 37152 ft 575 kts 56°
2026-04-26 18:18 23.57427 -136.67578 37149 ft 575 kts 56°
2026-04-26 18:19 23.61621 -136.60135 37153 ft 575 kts 56°
2026-04-26 18:19 23.65790 -136.52723 37149 ft 575 kts 56°
2026-04-26 18:20 23.69983 -136.45259 37150 ft 575 kts 56°
2026-04-26 18:20 23.73458 -136.39063 37153 ft 574 kts 56°
2026-04-26 18:21 23.78302 -136.30416 37152 ft 574 kts 56°
2026-04-26 18:21 23.82483 -136.22939 37154 ft 575 kts 56°
2026-04-26 18:22 23.86646 -136.15482 37147 ft 575 kts 56°
2026-04-26 18:22 23.90789 -136.08051 37152 ft 575 kts 56°
2026-04-26 18:23 23.94939 -136.00596 37150 ft 574 kts 56°
2026-04-26 18:23 23.99106 -135.93100 37144 ft 575 kts 56°
2026-04-26 18:24 24.03235 -135.85660 37147 ft 575 kts 56°
2026-04-26 18:24 24.07373 -135.78192 37152 ft 575 kts 56°
2026-04-26 18:25 24.11516 -135.70705 37155 ft 575 kts 56°
2026-04-26 18:25 24.15658 -135.63207 37155 ft 575 kts 57°
2026-04-26 18:26 24.19776 -135.55742 37153 ft 575 kts 57°
2026-04-26 18:26 24.23920 -135.48218 37155 ft 575 kts 57°
2026-04-26 18:27 24.28035 -135.40735 37155 ft 576 kts 57°
2026-04-26 18:27 24.32172 -135.33201 37162 ft 575 kts 57°
2026-04-26 18:28 24.36310 -135.25654 37158 ft 575 kts 57°
2026-04-26 18:28 24.40405 -135.18172 37161 ft 575 kts 57°
2026-04-26 18:29 24.44534 -135.10616 37158 ft 575 kts 57°
2026-04-26 18:29 24.48645 -135.03082 37159 ft 575 kts 57°
2026-04-26 18:30 24.52731 -134.95584 37159 ft 575 kts 57°
2026-04-26 18:30 24.56839 -134.88031 37160 ft 575 kts 57°
2026-04-26 18:31 24.60941 -134.80479 37160 ft 575 kts 57°
2026-04-26 18:31 24.65042 -134.72916 37160 ft 575 kts 57°
2026-04-26 18:32 24.69121 -134.65382 37158 ft 575 kts 57°
2026-04-26 18:32 24.73216 -134.57807 37157 ft 576 kts 57°
2026-04-26 18:33 24.77312 -134.50217 37164 ft 576 kts 57°
2026-04-26 18:33 24.81378 -134.42671 37160 ft 576 kts 57°
2026-04-26 18:34 24.85474 -134.35058 37162 ft 576 kts 57°
2026-04-26 18:34 24.89544 -134.27480 37158 ft 576 kts 57°
2026-04-26 18:35 24.93634 -134.19853 37161 ft 577 kts 57°
2026-04-26 18:35 24.97712 -134.12235 37162 ft 577 kts 57°
2026-04-26 18:36 25.01771 -134.04643 37162 ft 577 kts 57°
2026-04-26 18:36 25.05852 -133.96995 37159 ft 578 kts 58°
2026-04-26 18:37 25.09932 -133.89337 37162 ft 578 kts 58°
2026-04-26 18:37 25.13987 -133.81713 37157 ft 578 kts 58°
2026-04-26 18:38 25.18201 -133.74151 37161 ft 577 kts 53°
2026-04-26 18:38 25.22667 -133.66745 37166 ft 578 kts 54°
2026-04-26 18:39 25.27110 -133.59397 37164 ft 578 kts 54°
2026-04-26 18:39 25.31588 -133.51968 37158 ft 579 kts 54°
2026-04-26 18:40 25.36058 -133.44543 37163 ft 579 kts 54°
2026-04-26 18:40 25.40498 -133.37159 37163 ft 579 kts 54°
2026-04-26 18:41 25.44964 -133.29713 37159 ft 580 kts 54°
2026-04-26 18:41 25.49424 -133.22273 37161 ft 580 kts 54°
2026-04-26 18:42 25.53860 -133.14856 37163 ft 580 kts 54°
2026-04-26 18:42 25.58307 -133.07412 37165 ft 581 kts 54°
2026-04-26 18:43 25.62773 -132.99922 37162 ft 581 kts 54°
2026-04-26 18:43 25.67209 -132.92472 37162 ft 582 kts 54°
2026-04-26 18:44 25.71672 -132.84964 37162 ft 582 kts 54°
2026-04-26 18:44 25.76106 -132.77493 37152 ft 582 kts 54°
2026-04-26 18:45 25.80573 -132.69954 37161 ft 583 kts 54°
2026-04-26 18:45 25.85026 -132.62426 37162 ft 583 kts 54°
2026-04-26 18:46 25.89459 -132.54920 37164 ft 584 kts 54°
2026-04-26 18:46 25.93917 -132.47360 37160 ft 584 kts 54°
2026-04-26 18:47 25.98371 -132.39794 37166 ft 584 kts 54°
2026-04-26 18:47 26.02794 -132.32268 37162 ft 584 kts 54°
2026-04-26 18:48 26.07248 -132.24677 37163 ft 584 kts 54°
2026-04-26 18:48 26.11691 -132.17092 37162 ft 585 kts 54°
2026-04-26 18:49 26.16118 -132.09522 37162 ft 585 kts 54°
2026-04-26 18:49 26.20558 -132.01917 37159 ft 586 kts 54°
2026-04-26 18:50 26.24984 -131.94323 37165 ft 586 kts 54°
2026-04-26 18:50 26.29425 -131.86693 37163 ft 586 kts 55°
2026-04-26 18:51 26.33865 -131.79049 37159 ft 587 kts 55°
2026-04-26 18:51 26.38288 -131.71422 37166 ft 587 kts 55°
2026-04-26 18:52 26.41973 -131.65058 37160 ft 588 kts 55°
2026-04-26 18:52 26.46413 -131.57379 37163 ft 588 kts 55°
2026-04-26 18:53 26.50850 -131.49692 37167 ft 588 kts 55°
2026-04-26 18:53 26.55259 -131.42041 37158 ft 589 kts 55°
2026-04-26 18:54 26.59695 -131.34328 37155 ft 589 kts 55°
2026-04-26 18:54 26.64123 -131.26616 37162 ft 590 kts 55°
2026-04-26 18:55 26.68565 -131.18868 37153 ft 590 kts 55°
2026-04-26 18:55 26.72975 -131.11162 37162 ft 591 kts 55°
2026-04-26 18:56 26.77407 -131.03405 37159 ft 592 kts 55°
2026-04-26 18:56 26.81845 -130.95622 37160 ft 592 kts 55°
2026-04-26 18:57 26.85531 -130.89149 37160 ft 592 kts 55°
2026-04-26 18:57 26.90691 -130.80071 37160 ft 593 kts 55°
2026-04-26 18:58 26.95094 -130.72309 37161 ft 593 kts 55°
2026-04-26 18:58 26.99526 -130.64484 37161 ft 594 kts 55°
2026-04-26 18:59 27.03935 -130.56684 37161 ft 594 kts 55°
2026-04-26 18:59 27.08365 -130.48835 37161 ft 594 kts 55°
2026-04-26 19:00 27.12799 -130.40962 37158 ft 595 kts 55°
2026-04-26 19:00 27.17201 -130.33135 37154 ft 597 kts 55°
2026-04-26 19:01 27.21657 -130.25195 37158 ft 594 kts 55°
2026-04-26 19:01 27.26058 -130.17344 37158 ft 597 kts 55°
2026-04-26 19:02 27.30480 -130.09434 37162 ft 596 kts 55°
2026-04-26 19:02 27.34149 -130.02864 37157 ft 597 kts 55°
2026-04-26 19:03 27.39281 -129.93657 37158 ft 597 kts 55°